ECMWFFLT2_925_thetae_000.txt.gz
Theta_e
331 327 329 329 324 327 327 324 322 325 334 333 320 320 327 323 319 325 325 325 335 342 351 364 357 356 358 351 352 352 349 352 350 350 351 351 357 359 358 360 360 362 361 361 363 361 361 362 361 361 360 361 361 360 359 358 356 354 351 350 347 345 343
330 327 329 331 328 333 328 317 322 331 329 333 334 324 322 321 320 327 326 319 322 327 338 358 360 357 357 353 352 351 351 352 350 350 351 350 355 357 357 359 360 362 362 361 363 362 360 361 361 360 360 361 360 359 358 356 354 353 351 349 346 344 343
329 330 327 326 327 331 329 322 329 332 318 319 329 323 320 322 321 323 324 323 325 325 335 355 357 355 358 354 352 353 352 352 350 350 352 352 354 355 356 358 360 362 362 362 363 361 360 360 360 360 360 359 359 357 356 355 354 353 350 348 346 343 343
326 330 324 318 321 326 330 329 330 332 326 319 320 321 324 323 323 326 327 326 330 340 351 358 356 357 357 353 355 354 351 352 350 350 351 353 353 354 354 356 359 361 362 361 363 361 360 360 359 360 359 358 358 356 355 354 353 352 350 347 345 344 344
323 323 324 320 322 323 324 324 321 322 327 324 321 324 324 322 326 332 328 322 336 368 371 357 354 355 354 353 355 354 352 352 351 350 350 351 352 354 353 355 358 360 360 361 361 360 360 360 359 358 358 358 357 354 354 352 351 350 348 346 345 344 343
317 321 329 328 327 327 326 324 323 322 324 321 317 320 323 323 325 330 326 320 338 370 363 352 355 352 349 351 352 353 353 351 351 349 349 350 351 353 353 353 356 358 360 360 360 360 358 358 358 357 358 358 355 354 353 351 350 349 347 346 345 344 344
323 328 330 328 328 329 331 329 328 329 330 323 315 317 324 322 319 327 326 320 340 371 359 348 353 348 345 347 349 351 350 348 350 349 348 350 351 353 352 352 354 357 358 358 359 359 357 357 357 356 357 357 354 353 352 350 350 348 347 346 345 345 345
328 329 329 329 330 330 327 328 329 329 329 329 329 337 338 323 317 324 321 316 338 376 365 347 348 348 344 343 346 349 347 347 348 348 350 352 351 351 351 351 352 355 355 357 358 357 357 356 357 356 356 356 354 353 351 350 349 348 346 346 345 346 346
319 321 323 322 325 328 328 331 330 328 331 331 333 340 334 323 322 325 320 319 339 368 360 344 344 346 342 341 342 344 346 347 348 350 353 353 353 353 352 351 353 354 355 358 358 356 356 356 356 356 355 355 353 352 351 349 348 347 346 346 346 346 346
318 317 320 322 326 327 328 333 329 328 332 326 325 327 322 321 327 326 323 328 341 355 351 342 343 344 341 341 341 343 348 350 354 355 355 355 356 354 353 353 353 354 357 358 358 356 356 356 356 355 354 354 352 351 351 350 348 347 347 346 346 346 345
324 322 330 340 338 325 319 325 326 328 331 326 328 326 321 327 331 326 335 343 335 339 350 344 341 343 340 342 346 350 354 356 358 360 357 358 358 356 354 353 354 356 358 359 360 357 356 355 355 354 353 352 351 351 350 349 348 347 346 346 347 346 346
328 336 344 343 334 323 319 323 323 326 331 329 325 320 325 339 329 321 343 354 329 332 350 345 339 343 341 343 349 353 357 357 358 359 360 362 361 358 357 355 356 359 359 361 360 356 355 356 355 354 353 351 350 350 349 348 348 347 346 347 348 347 346
329 338 341 340 333 325 325 325 323 326 329 327 323 321 330 341 326 320 341 350 334 337 347 341 338 340 340 343 349 350 354 356 356 358 361 365 364 360 359 357 357 358 358 360 360 356 355 355 354 353 352 350 349 349 349 349 347 347 347 347 348 348 346
329 332 334 338 331 326 326 326 326 327 328 328 326 326 334 338 331 332 345 347 342 342 339 337 337 338 339 344 346 348 351 355 359 359 360 365 366 364 360 356 355 356 357 359 359 357 355 353 354 353 351 350 349 348 348 348 347 346 346 347 348 348 346
325 330 332 333 331 328 324 323 328 329 326 328 327 325 334 336 333 337 344 343 345 345 339 338 339 340 343 344 345 348 352 357 365 366 361 363 365 364 361 359 356 355 355 356 358 358 354 353 353 352 351 349 348 347 347 346 347 346 346 346 347 347 346
319 327 329 328 329 328 321 319 327 329 327 329 328 329 335 337 336 341 340 334 338 345 346 344 344 344 344 344 346 349 349 355 367 369 362 360 365 368 368 365 360 357 357 355 356 356 353 352 353 351 352 350 347 347 347 346 346 346 345 345 346 347 346
319 326 328 330 330 321 317 325 329 330 334 334 332 338 343 343 346 347 339 335 338 345 348 348 346 341 342 344 347 348 352 357 362 366 363 362 367 375 378 375 365 359 358 355 351 351 351 352 352 351 351 350 348 346 346 345 345 345 345 345 346 346 345
319 327 329 331 326 317 321 339 341 333 338 336 333 336 340 344 349 349 347 347 348 345 344 346 344 340 342 347 346 348 357 363 364 365 365 364 366 374 386 393 383 366 358 354 348 349 351 352 352 351 351 350 348 346 346 345 345 345 345 346 346 346 345
325 331 327 317 317 325 342 353 343 335 337 339 340 339 339 343 348 350 351 348 348 347 344 342 343 343 345 347 348 351 355 362 366 365 367 365 363 366 380 399 402 379 359 353 350 349 351 351 351 352 351 349 348 346 346 345 345 346 346 345 344 342 341
329 328 321 317 324 342 358 351 338 338 343 344 344 337 336 344 346 345 345 345 345 346 344 342 346 348 349 350 350 351 356 364 365 361 365 365 362 366 377 390 397 378 357 352 352 351 352 351 351 352 351 350 349 346 345 345 345 345 344 341 338 335 335
333 329 325 327 328 331 340 343 339 340 343 347 347 336 334 346 347 340 342 347 348 347 344 346 348 348 352 351 345 345 355 372 376 361 357 362 367 376 370 359 357 355 350 352 353 351 352 352 351 352 351 350 347 344 343 344 344 342 339 336 334 333 335
338 338 331 327 320 320 334 347 342 336 336 347 362 351 341 344 345 342 345 345 345 346 345 347 348 349 350 349 351 354 353 359 366 356 348 355 365 367 355 345 344 347 350 352 352 351 353 353 351 352 349 347 344 340 341 342 341 340 337 334 334 335 335
337 341 334 328 323 327 342 349 343 336 334 345 357 348 342 345 345 345 347 343 342 344 343 346 349 349 349 351 365 376 360 347 352 352 352 362 361 348 343 350 355 356 356 353 351 352 352 350 350 351 347 344 342 340 340 341 340 340 338 336 336 336 334
337 341 334 329 329 334 343 346 342 336 337 344 337 328 333 348 348 344 347 348 349 349 349 348 346 347 354 358 360 360 351 347 352 354 357 369 364 349 345 352 355 355 356 353 350 349 349 348 350 349 346 344 342 341 342 341 341 342 341 339 338 336 333
332 332 328 325 331 340 343 342 341 340 348 352 337 329 340 351 345 344 346 346 347 351 353 353 347 344 350 353 347 343 344 349 354 352 348 350 350 347 347 351 352 349 349 350 349 349 349 349 349 348 346 345 342 341 342 341 342 343 343 340 338 334 333
332 335 330 324 330 342 342 339 343 347 349 345 339 344 353 349 342 345 344 341 344 346 347 350 346 342 342 342 342 342 344 349 353 351 347 344 345 350 350 350 350 347 345 347 348 348 348 348 348 349 346 345 342 341 341 341 341 340 341 339 337 335 335
345 344 333 323 328 338 339 341 351 351 346 344 350 354 349 342 343 345 343 343 345 343 343 346 345 343 342 341 341 341 343 350 355 353 352 349 349 355 353 349 348 345 343 342 343 345 347 347 348 349 346 343 342 340 340 341 341 340 339 339 340 340 338
354 344 333 331 337 339 336 340 346 343 341 345 350 346 340 337 341 342 341 343 343 342 343 343 342 342 342 342 344 344 348 360 366 365 368 363 354 351 350 349 347 344 341 341 342 342 344 345 346 347 346 344 341 340 341 341 341 340 340 340 342 343 340
348 343 340 344 343 338 333 335 337 336 337 338 337 335 334 336 337 339 340 340 340 341 344 343 343 347 345 345 351 352 351 356 361 362 362 356 348 347 348 349 347 343 340 341 340 340 342 343 344 344 344 343 341 341 341 342 341 340 340 340 341 341 339
342 342 341 343 342 336 333 332 331 332 333 333 332 334 334 334 333 335 337 338 339 340 343 346 348 348 347 351 361 365 359 358 364 366 358 347 341 343 349 351 348 343 339 338 339 339 340 339 339 340 340 339 339 338 338 338 339 339 339 338 338 336 334
344 344 345 346 343 337 335 335 333 332 331 331 332 335 336 334 333 332 333 333 334 336 340 346 351 351 352 353 361 371 375 372 374 380 374 356 343 341 347 351 347 341 338 338 339 339 339 339 340 339 338 337 336 336 336 336 337 338 336 334 333 331 330
351 349 352 354 344 335 335 337 337 335 333 331 331 333 333 333 331 331 332 331 329 331 335 338 341 347 354 355 356 367 379 379 376 377 373 359 344 341 345 348 344 340 339 339 338 336 337 340 340 337 336 335 332 331 332 331 332 332 330 327 325 324 326
354 347 348 351 343 334 333 336 337 338 334 332 331 330 329 330 330 330 332 331 330 329 332 333 335 340 350 359 359 360 368 377 381 373 357 345 340 340 341 342 341 340 339 337 334 333 335 338 337 336 336 333 331 329 327 325 325 326 328 328 325 321 324
352 350 345 344 340 336 333 334 337 338 334 330 331 330 329 330 332 333 332 333 335 335 333 335 338 339 344 354 358 358 363 373 379 368 350 340 339 340 339 340 341 340 336 333 332 332 335 336 336 336 333 330 330 330 326 323 323 323 328 332 330 326 328
348 348 345 345 344 338 333 332 335 336 334 330 329 330 330 329 331 334 335 337 342 343 336 331 331 334 335 340 350 357 359 358 355 351 345 340 339 339 338 338 338 335 331 331 331 331 332 333 334 333 330 327 328 329 326 325 325 324 325 328 327 327 329
343 341 342 346 346 335 329 330 330 330 332 330 327 329 331 329 329 332 334 335 336 337 332 326 324 326 328 331 341 355 357 349 342 342 342 341 339 339 338 336 334 332 331 331 331 331 331 333 333 332 330 329 329 330 329 328 328 329 327 326 324 324 325
341 340 336 335 335 331 329 329 326 326 328 329 327 327 329 330 330 330 328 329 327 325 326 325 322 322 326 328 335 343 347 343 341 341 341 341 339 337 336 335 333 333 332 331 331 331 332 333 333 332 332 332 331 330 330 329 330 330 327 324 324 325 325

ECMWFFLT2_925_thetae_003.txt.gz
Theta_e
328 327 329 328 325 325 325 324 322 324 332 330 319 318 325 322 318 325 327 326 333 335 339 360 367 356 352 351 350 350 348 349 351 353 352 352 355 358 357 359 360 361 361 359 359 359 359 360 359 360 360 359 359 358 357 358 358 357 356 357 357 355 354
327 325 328 329 327 331 326 318 323 331 328 333 331 322 322 321 320 326 325 320 323 324 332 356 365 359 358 354 350 349 349 350 351 352 351 351 354 356 357 359 359 360 361 359 359 359 359 360 359 360 360 359 360 358 357 358 358 356 355 355 356 353 351
327 327 324 324 326 328 326 323 329 329 320 322 326 322 321 322 321 325 324 324 326 325 335 352 359 367 365 352 350 351 348 350 350 349 351 350 352 355 357 358 359 361 360 359 359 359 359 360 359 360 360 359 359 359 358 358 356 355 354 355 354 351 350
326 328 322 317 320 325 326 327 327 327 326 324 322 322 323 321 323 328 326 323 326 336 354 361 363 374 365 351 354 352 348 349 348 349 350 349 351 355 356 357 358 359 359 359 359 359 360 359 359 360 360 360 360 359 358 357 356 355 354 353 351 350 349
322 322 322 319 321 324 323 322 321 321 325 326 324 326 325 323 327 333 329 322 331 355 371 369 366 370 358 352 354 350 348 349 347 347 349 348 349 353 355 356 357 357 358 359 359 359 360 360 359 360 359 359 359 359 358 357 356 354 353 352 350 348 348
317 322 332 328 326 327 324 321 322 321 321 323 320 320 323 324 325 331 328 320 331 361 370 367 369 364 352 352 351 349 349 347 347 348 347 347 349 351 354 355 355 356 357 358 359 360 359 359 360 360 359 360 359 358 357 356 356 354 353 352 350 349 346
322 327 332 328 326 328 328 325 325 328 328 323 315 316 321 321 319 327 326 317 331 372 382 371 369 360 352 350 349 350 349 346 347 348 346 348 349 349 351 353 354 356 355 356 358 359 359 359 359 359 359 359 358 358 357 356 355 354 352 351 350 349 346
326 326 328 331 329 325 324 326 327 327 329 326 325 331 331 322 318 323 321 317 334 381 385 364 358 355 352 352 350 350 349 348 348 347 347 349 349 351 351 351 354 355 354 357 358 359 359 359 359 359 358 359 358 358 357 356 355 354 352 350 349 347 346
319 321 323 323 324 325 326 331 330 326 331 332 334 340 332 320 322 325 320 319 336 370 369 350 350 352 349 350 350 349 350 349 348 348 350 350 350 352 352 351 354 355 356 359 358 358 359 359 359 358 358 358 358 357 357 356 355 353 352 350 348 347 346
316 317 319 321 324 328 329 333 328 326 332 327 327 330 320 317 325 326 324 327 338 359 358 342 346 352 348 349 347 347 351 350 349 351 350 351 352 352 353 353 353 354 357 360 359 358 359 359 359 358 357 358 357 357 357 355 354 353 351 349 348 346 345
318 320 332 339 336 327 321 325 325 326 329 326 332 329 319 323 330 325 337 345 333 340 354 346 347 351 348 349 346 348 352 350 351 353 350 351 352 350 353 352 352 354 356 359 360 358 358 359 358 358 358 357 357 357 356 355 354 352 350 349 347 346 345
321 329 341 343 334 323 319 323 324 324 328 326 328 325 324 334 327 319 347 364 331 333 356 352 347 350 349 350 348 346 349 348 350 353 351 352 351 350 353 351 352 354 355 357 359 356 356 357 357 358 357 356 357 356 356 354 353 352 350 349 347 346 345
326 330 331 333 331 327 326 326 323 324 328 325 322 324 332 339 323 318 348 364 339 340 356 349 345 348 347 348 346 344 346 347 350 353 352 353 352 351 352 351 353 354 352 355 357 355 355 356 356 357 356 356 356 355 355 354 352 351 349 348 347 346 346
325 326 325 328 327 325 324 325 326 325 326 326 324 328 336 337 328 331 351 358 349 346 347 344 343 343 343 347 348 347 347 350 354 356 355 354 352 352 352 351 352 353 352 354 355 356 355 353 355 356 355 356 355 354 354 353 352 351 349 348 347 346 346
321 323 327 327 324 326 323 322 329 326 323 326 323 325 335 333 329 337 346 347 348 345 343 345 343 343 346 350 350 351 352 355 359 359 357 355 353 352 353 353 353 353 353 353 355 357 354 352 355 355 355 355 354 354 354 352 352 351 349 348 347 346 346
317 321 324 326 327 327 321 319 325 324 322 327 326 328 336 333 329 337 337 335 340 343 345 348 347 345 345 346 350 354 354 356 359 359 358 357 356 357 357 357 357 356 356 356 356 356 353 352 354 354 354 355 353 353 353 352 352 350 348 348 347 346 346
317 322 323 326 325 320 320 327 333 330 332 337 337 339 343 342 341 341 333 330 341 349 346 344 346 345 342 343 349 350 352 355 356 356 358 359 359 360 360 360 359 357 356 355 353 351 351 352 354 354 354 354 353 353 352 351 351 350 348 348 347 346 346
317 325 326 325 320 317 328 347 346 338 339 340 340 340 341 345 351 351 341 338 348 355 348 345 347 343 341 344 345 344 348 352 354 355 356 358 361 363 363 362 360 358 356 351 346 348 350 352 353 354 353 354 353 352 351 350 350 348 348 347 346 346 345
324 328 324 318 318 324 341 351 342 336 337 339 342 341 341 345 350 357 356 349 350 352 347 344 345 343 347 351 349 348 348 349 354 358 356 358 363 364 364 367 365 361 358 351 344 345 349 350 352 353 353 354 353 350 349 348 347 347 347 346 346 345 344
327 324 317 315 322 336 348 344 340 339 339 340 342 339 339 343 344 352 358 353 349 347 343 345 349 348 350 354 351 351 349 345 350 358 357 357 362 366 371 380 376 362 354 350 345 345 347 348 350 352 352 353 353 350 347 346 345 345 345 345 345 344 344
333 328 321 322 326 332 342 344 342 340 337 339 343 337 335 340 340 344 351 349 347 346 342 344 349 347 348 350 345 346 348 347 348 353 352 352 361 369 371 368 364 353 347 349 348 347 348 347 348 351 352 351 351 348 346 345 344 343 343 343 344 344 343
341 335 323 324 325 326 340 350 344 337 333 337 345 342 337 339 340 342 347 344 344 344 340 339 343 344 347 348 344 344 350 353 353 350 345 346 354 358 351 343 342 345 347 350 349 348 349 348 348 349 350 350 350 347 345 345 344 343 342 343 343 343 343
344 338 328 328 328 330 342 347 341 336 334 336 341 341 338 340 341 343 348 347 344 344 342 342 343 344 344 346 346 346 346 349 350 351 351 351 349 346 341 338 339 344 348 349 349 350 350 349 349 350 350 351 349 347 345 344 343 342 341 341 341 341 340
342 341 333 330 331 335 341 341 336 333 335 340 337 332 333 341 343 342 346 349 349 347 346 344 345 346 345 344 344 343 343 344 349 356 361 359 353 350 349 348 344 346 350 350 350 351 350 350 351 350 349 349 347 346 345 343 342 342 341 341 341 338 337
338 340 333 327 332 340 339 336 335 335 340 346 339 331 335 344 344 340 340 340 341 342 342 341 342 343 344 341 338 341 345 345 347 351 349 347 348 350 350 351 350 349 350 349 349 351 350 350 351 350 349 348 345 345 344 341 340 341 340 339 338 336 336
336 340 337 329 333 340 336 333 338 342 346 347 339 336 342 343 340 340 339 337 338 339 341 343 341 339 339 339 341 346 351 350 351 351 350 352 357 355 348 349 350 348 348 348 348 349 349 349 350 349 348 346 344 342 341 339 339 339 337 336 335 335 336
342 346 344 337 337 339 335 340 350 351 346 344 341 340 344 341 339 340 339 339 341 340 340 343 343 342 342 346 350 352 355 357 357 357 359 363 366 357 348 346 347 345 345 345 344 345 346 346 346 345 344 344 343 340 338 338 338 337 336 335 334 335 336
351 347 345 345 347 343 335 339 348 344 340 343 341 338 338 337 336 337 338 340 341 340 341 343 343 343 346 352 355 356 358 360 360 361 364 364 359 354 349 348 346 343 341 342 341 342 343 343 343 343 343 342 340 338 337 337 338 337 335 334 334 335 336
349 346 346 350 352 344 334 334 338 335 335 338 336 332 335 335 334 333 334 337 337 337 338 339 340 343 345 348 353 357 358 358 361 362 358 350 347 349 349 347 345 341 340 341 341 340 341 342 342 342 343 341 339 337 336 337 337 337 336 335 336 335 335
340 340 342 345 344 337 331 331 332 331 332 333 331 331 333 333 331 331 331 332 332 332 332 333 335 340 341 342 347 352 354 356 359 361 354 341 336 340 346 346 344 341 340 339 339 339 339 340 341 341 341 341 339 337 337 337 337 336 336 337 336 336 336
342 342 342 342 339 335 331 331 329 329 330 330 331 333 334 333 332 331 330 330 330 330 331 332 332 333 335 337 342 346 348 351 355 359 359 348 336 335 341 344 342 339 339 338 338 338 337 337 338 339 339 338 337 336 336 336 336 335 335 335 335 335 335
346 344 341 341 338 334 333 331 327 327 328 327 330 332 333 334 333 330 330 330 330 330 331 330 330 330 331 334 338 343 346 349 350 352 353 346 338 336 340 341 340 338 338 337 337 337 335 335 335 335 334 333 331 329 329 329 330 330 330 330 328 328 328
347 342 341 342 337 331 331 331 329 328 327 327 329 329 329 332 332 330 330 330 328 329 330 329 329 330 331 332 335 341 346 349 349 348 345 339 336 338 340 340 339 339 337 336 337 336 334 333 331 331 330 329 327 326 325 324 325 326 326 327 326 326 327
344 342 342 342 337 331 330 329 328 327 326 326 329 329 328 331 333 332 331 329 328 328 329 328 329 331 331 331 333 338 344 348 348 344 340 336 336 337 339 338 338 337 336 336 336 335 333 331 328 326 326 326 326 326 325 324 324 324 325 326 327 326 326
343 342 341 339 335 330 328 327 327 327 326 325 326 326 326 328 329 328 327 327 327 327 326 325 326 329 331 331 332 335 338 340 340 339 338 338 337 337 337 336 334 333 334 336 336 334 331 327 324 324 325 325 325 325 325 325 325 324 324 325 325 325 324
339 339 337 333 329 325 324 325 326 326 325 324 324 324 323 323 323 324 324 324 325 326 326 324 322 326 330 330 330 334 336 335 335 336 337 339 339 339 337 334 332 333 335 335 335 333 330 326 325 325 324 324 325 326 326 325 326 325 325 325 325 325 326
331 331 329 325 325 325 325 324 324 325 325 325 325 326 325 324 323 323 323 324 323 323 326 327 324 324 327 327 326 329 332 332 333 337 339 339 338 338 336 333 331 332 334 334 334 332 329 326 326 326 326 327 327 327 327 327 327 327 326 326 326 325 325

ECMWFFLT2_925_thetae_006.txt.gz
Theta_e
326 326 328 328 326 324 324 324 321 322 330 330 321 321 329 325 320 327 332 333 337 337 340 354 361 359 354 350 347 345 347 352 351 350 350 349 350 350 351 353 354 355 354 354 356 356 356 357 356 357 357 356 356 356 356 356 356 356 356 356 356 356 357
324 325 328 328 326 329 326 319 323 327 326 333 333 322 322 322 320 326 328 326 326 325 338 362 360 351 357 360 351 344 347 352 351 350 349 349 351 351 352 353 353 355 354 354 356 356 357 357 356 357 357 357 357 357 357 357 356 357 356 355 355 355 356
325 326 322 322 323 326 327 325 329 327 319 323 328 322 322 322 322 327 326 325 328 326 336 355 351 349 354 356 355 349 347 351 349 347 348 349 351 352 353 353 353 355 355 354 355 356 357 357 357 357 357 357 358 357 358 357 357 357 355 355 355 355 356
324 325 319 315 318 321 325 327 326 326 324 323 322 323 323 321 324 330 325 322 328 333 341 347 346 353 351 351 361 356 347 348 347 345 348 348 351 353 353 353 353 355 354 355 356 356 357 357 357 358 357 357 358 358 358 357 356 356 355 354 354 354 354
320 320 320 315 317 320 322 321 320 321 323 325 324 325 326 325 327 331 327 323 331 344 350 348 347 354 353 351 360 357 347 346 345 346 348 348 350 352 352 353 353 354 354 355 356 356 356 357 357 358 357 357 357 358 357 357 356 355 355 354 353 353 353
316 320 328 325 322 324 323 321 321 321 321 322 319 320 324 326 325 330 329 320 328 348 352 345 344 352 354 350 352 353 349 346 346 346 346 347 349 349 351 353 353 353 354 354 356 357 356 357 357 358 358 358 357 358 357 357 356 355 355 354 353 353 352
321 325 330 326 322 325 326 323 324 325 325 322 314 315 324 323 320 327 326 317 328 358 360 346 345 356 359 352 349 351 349 346 346 346 345 348 349 348 349 351 352 354 354 354 355 357 357 357 357 357 358 358 357 358 357 357 357 356 355 354 353 352 350
323 324 326 327 325 325 322 322 325 324 324 323 320 325 331 324 320 324 320 317 338 372 368 352 355 364 363 354 348 350 349 347 347 346 347 349 350 349 349 350 353 354 353 355 356 356 357 357 357 357 358 358 358 358 357 357 357 356 356 354 353 351 350
317 318 320 320 321 323 324 326 327 324 325 327 327 333 330 321 322 325 319 319 337 365 367 355 357 361 358 351 346 348 350 349 347 347 349 350 350 350 350 351 354 355 355 356 356 356 357 357 357 358 357 358 358 358 358 357 357 357 355 354 352 351 349
316 315 317 319 322 325 329 331 327 324 327 325 324 327 320 318 325 325 323 326 337 354 360 351 354 359 358 355 349 348 351 350 349 350 349 351 352 351 351 351 354 355 356 357 357 355 356 357 357 358 357 358 358 357 358 357 357 357 356 354 352 350 349
316 317 324 335 336 325 320 325 325 325 326 324 328 326 318 324 330 326 335 341 330 335 347 347 356 359 357 360 355 350 352 352 352 353 351 352 351 349 350 350 352 355 356 357 357 355 355 356 357 358 358 358 358 357 358 357 357 357 356 354 352 350 348
320 323 330 339 337 323 319 324 322 324 327 324 326 323 322 333 327 320 345 356 327 327 346 350 360 362 356 359 356 351 352 351 351 352 352 353 352 350 351 350 351 355 355 356 357 354 353 355 356 357 357 357 357 357 357 357 357 356 355 355 352 350 348
324 325 325 333 335 327 326 328 323 323 326 323 322 322 329 337 323 318 346 357 333 332 346 345 354 361 358 358 353 348 348 348 349 352 353 354 353 350 351 350 351 353 353 354 356 354 352 353 355 356 357 357 357 357 357 357 357 357 355 355 352 350 348
324 323 322 329 329 327 327 327 327 326 325 324 323 324 332 335 326 328 348 352 340 337 342 342 346 348 349 351 348 345 347 349 351 353 353 353 351 350 350 350 351 351 351 352 354 354 352 352 354 356 356 357 357 356 357 357 356 356 355 354 352 350 348
320 321 324 326 323 324 323 321 329 329 324 325 322 322 331 332 328 333 342 343 341 339 342 346 345 344 347 350 349 347 347 350 351 351 352 352 350 349 349 349 350 351 352 352 355 356 353 350 353 355 355 356 356 356 356 356 356 356 354 354 352 350 348
319 322 323 322 322 323 319 317 324 325 322 325 323 326 336 333 328 334 337 332 335 340 345 346 346 349 349 349 350 348 346 349 350 350 351 351 350 350 350 350 352 352 353 355 356 355 350 348 351 353 354 355 355 356 356 355 355 355 353 353 351 350 349
319 323 322 322 321 317 316 320 322 321 326 328 325 332 345 341 333 334 331 328 336 347 347 343 347 351 348 347 347 346 346 349 349 350 350 349 349 350 350 351 352 352 353 353 351 349 346 347 350 351 353 354 354 355 355 355 355 354 353 352 350 349 348
315 322 324 323 318 315 325 338 335 326 326 325 327 338 348 345 343 344 340 338 350 355 349 345 348 349 348 347 341 339 345 347 346 349 351 350 350 351 352 354 353 353 354 350 345 344 345 347 348 350 352 353 354 355 355 354 354 353 352 351 349 348 347
321 326 323 318 318 325 339 346 339 331 327 329 339 347 348 345 347 354 357 353 354 358 357 351 348 346 352 354 348 348 353 350 347 349 351 354 357 357 358 359 357 357 358 352 344 343 346 346 347 349 350 351 353 353 353 354 353 353 352 350 348 348 347
325 323 317 317 326 337 342 341 341 340 335 336 342 339 339 343 343 346 357 359 354 355 356 353 350 349 352 354 350 348 352 352 351 352 354 357 360 361 362 363 362 357 354 350 345 345 346 347 347 349 350 351 352 352 352 353 352 351 351 349 348 347 347
331 326 319 322 328 332 337 339 341 341 338 340 345 339 336 341 341 340 350 359 351 347 348 349 349 350 351 355 353 346 344 346 349 351 352 353 357 362 360 356 354 350 346 345 345 345 346 346 347 349 350 351 352 352 351 351 351 350 349 348 347 347 346
338 334 327 328 327 328 340 347 341 337 334 336 344 345 338 339 341 339 345 351 347 344 343 343 347 353 357 362 359 347 341 344 347 347 346 347 351 354 350 346 346 345 345 345 345 345 346 346 347 348 349 351 352 351 350 349 348 348 347 347 346 346 346
337 333 330 334 332 332 346 354 342 335 335 335 338 339 335 339 344 341 341 344 343 342 342 341 345 356 360 357 352 346 342 343 347 350 352 355 356 348 342 341 343 344 346 346 345 346 346 346 346 346 348 350 351 350 348 347 345 345 344 344 344 345 345
341 339 337 337 335 336 344 346 338 333 334 333 330 329 333 341 344 340 340 342 341 342 344 342 344 350 352 347 343 341 339 340 345 353 360 369 372 358 345 342 342 344 347 347 346 347 347 347 347 347 347 349 348 347 345 344 343 343 342 342 343 343 344
341 344 339 332 335 341 340 337 334 333 334 334 329 330 336 342 342 340 339 338 338 339 340 340 341 344 343 340 339 338 339 341 344 348 351 356 359 353 346 345 345 346 347 346 346 346 346 347 347 345 347 347 345 344 343 342 342 342 341 342 342 342 343
338 344 344 337 338 341 334 331 334 336 341 343 338 335 339 340 340 339 338 336 338 338 338 339 340 340 338 337 338 338 339 342 344 345 349 352 351 347 344 344 345 346 345 345 344 344 344 346 346 346 346 345 343 342 342 341 341 341 340 341 341 341 341
339 345 349 342 339 336 330 335 346 347 344 344 340 338 338 337 337 336 334 336 337 337 337 339 339 339 338 338 338 337 338 340 340 342 346 349 349 346 344 342 342 343 343 342 342 343 344 345 345 345 345 342 341 341 339 339 340 340 339 340 340 340 339
341 344 347 342 339 335 330 336 347 344 338 339 339 336 334 333 332 331 331 334 335 334 335 336 336 337 339 339 339 338 338 339 340 342 346 348 348 346 342 340 340 341 341 340 340 342 342 343 344 344 344 342 339 338 338 338 339 339 339 339 339 338 338
337 339 341 339 338 336 331 331 336 335 334 336 334 332 332 332 331 330 330 331 332 331 332 332 333 335 337 338 339 338 337 340 342 344 344 344 344 344 342 340 340 340 340 339 340 340 341 342 343 343 343 342 339 337 338 338 338 338 337 337 338 337 336
336 336 338 336 335 335 333 331 331 331 332 332 330 329 331 331 330 329 330 330 330 330 331 332 333 334 336 339 340 340 340 342 344 348 349 342 337 338 341 341 340 340 340 339 339 339 339 341 342 342 342 342 340 338 338 338 338 337 336 336 336 336 335
342 342 342 337 333 333 333 332 331 331 331 332 332 332 331 331 329 329 330 330 329 329 331 333 334 334 337 343 347 346 346 345 345 351 357 348 337 335 339 341 340 339 340 338 336 336 337 339 341 341 341 341 340 338 337 337 337 336 336 335 335 335 335
345 345 341 335 330 330 330 329 329 330 329 330 332 332 331 330 329 327 327 328 328 329 331 333 333 331 333 340 344 344 344 344 344 347 350 344 337 335 337 339 339 339 338 336 335 336 337 339 340 340 340 340 339 338 337 337 336 335 335 335 334 335 335
340 337 334 333 332 332 330 328 329 330 328 329 330 330 328 328 327 326 325 325 324 326 328 329 329 329 329 332 335 336 337 339 342 345 343 337 335 336 337 337 338 339 338 337 336 336 336 337 338 338 338 338 337 337 337 336 336 335 335 335 335 335 335
338 336 333 333 334 335 333 330 331 330 327 326 328 327 325 326 325 325 325 325 324 324 325 326 327 328 328 329 332 334 337 339 341 341 337 333 334 337 338 337 337 338 338 337 336 335 335 334 333 334 335 336 336 336 336 336 337 336 336 335 334 334 334
339 338 333 330 332 333 330 328 330 329 326 326 326 325 324 324 324 323 324 325 324 323 324 324 325 326 327 328 329 331 332 332 334 336 336 335 337 338 338 336 335 335 336 337 335 333 332 330 329 329 331 333 335 336 336 336 336 336 335 333 332 332 332
333 332 329 326 326 327 325 325 327 327 326 325 323 322 322 322 322 322 322 322 323 323 324 323 322 323 325 326 327 330 328 326 327 332 335 336 338 338 337 335 333 333 335 335 333 330 328 328 327 327 328 329 331 332 333 334 333 332 330 329 329 329 328
326 326 324 322 323 324 323 323 324 325 326 326 324 324 325 323 322 323 323 323 323 323 323 323 321 321 322 323 323 324 324 322 322 326 330 333 335 336 335 332 332 334 335 333 331 328 326 326 327 327 326 326 327 328 329 329 328 328 327 326 327 327 325

ECMWFFLT2_925_thetae_009.txt.gz
Theta_e
321 323 323 324 323 320 322 322 318 321 327 325 319 317 322 319 316 322 327 324 327 331 334 340 343 340 343 344 343 341 343 346 347 347 348 347 347 347 349 350 352 352 354 356 356 356 356 356 356 357 359 358 357 357 358 358 357 358 357 356 356 356 357
319 321 322 323 323 323 322 318 320 325 325 327 327 320 320 319 315 320 324 321 320 320 323 338 347 341 341 345 344 342 344 346 346 347 348 348 347 347 348 351 353 353 354 355 356 356 356 357 357 358 358 357 356 357 358 358 359 359 358 357 357 356 356
320 321 321 320 323 324 322 321 325 325 318 320 326 321 318 318 316 318 322 321 320 317 320 330 338 341 345 348 349 345 342 345 345 345 348 349 348 348 348 350 351 352 353 355 356 356 356 357 358 359 358 357 358 358 358 359 358 358 358 358 358 356 357
320 321 318 314 317 321 322 323 325 325 320 320 322 320 317 317 317 317 319 320 320 322 329 333 334 342 350 351 354 350 342 344 346 345 347 349 349 350 348 348 350 351 351 354 356 355 356 357 358 359 358 359 359 359 359 359 359 359 358 358 357 356 357
317 317 318 315 317 319 319 319 319 320 322 322 321 320 318 316 317 317 318 317 317 327 342 343 340 345 349 350 355 353 347 344 345 345 347 349 350 350 349 348 349 349 350 353 355 355 357 358 358 358 358 359 359 359 360 359 359 359 359 358 357 356 356
313 316 320 321 320 322 320 319 319 319 320 319 316 319 319 317 317 318 318 315 315 329 345 345 346 346 341 344 349 348 347 344 344 346 346 348 351 350 350 349 348 348 350 352 354 356 357 358 359 358 358 359 359 359 360 359 360 360 359 359 358 356 356
318 320 323 322 320 322 322 321 324 323 323 318 312 314 318 318 317 318 318 314 317 336 351 343 344 346 339 343 347 344 344 344 344 345 343 347 351 350 349 348 347 349 351 353 356 357 359 359 360 359 358 359 359 359 360 360 360 360 359 360 358 357 356
322 321 321 322 321 322 319 320 324 323 322 321 317 323 325 320 316 317 318 314 317 340 364 352 346 346 340 342 345 344 345 346 345 345 345 348 351 351 350 348 350 351 351 356 358 359 361 361 360 360 359 360 359 359 360 359 360 360 359 360 359 357 356
318 318 318 319 319 320 318 319 324 323 325 325 323 331 331 321 316 317 316 313 316 338 365 356 347 344 338 337 340 342 347 349 346 345 347 350 352 352 352 351 354 353 353 357 359 360 362 360 360 361 360 361 360 360 360 359 359 360 360 360 359 357 357
315 315 315 316 317 320 319 321 323 322 324 323 321 325 322 318 321 322 315 313 321 342 359 351 348 348 343 341 342 342 345 347 347 348 348 350 353 353 353 353 355 356 356 358 359 361 362 360 360 361 360 361 360 360 361 360 359 360 360 360 359 358 357
316 316 320 325 324 319 316 319 320 321 323 323 324 321 316 320 325 321 320 322 322 332 346 347 350 351 349 349 347 346 349 348 347 349 349 350 351 352 353 353 355 357 359 359 359 361 361 359 360 361 361 360 360 361 361 360 359 360 360 360 359 358 357
322 322 326 328 325 318 316 318 318 320 323 323 322 318 320 330 322 313 328 342 327 325 341 348 350 354 357 359 355 352 355 352 348 348 349 349 349 350 352 353 355 357 358 359 359 360 361 360 361 361 360 360 361 361 361 360 360 360 360 360 360 358 357
324 325 325 326 325 322 321 320 319 320 322 322 320 319 326 335 321 314 335 353 336 330 339 342 344 351 355 362 362 354 351 351 348 348 348 347 347 348 350 352 355 357 358 359 359 359 360 361 361 361 361 361 362 361 361 361 360 360 360 361 360 359 357
322 323 323 325 324 322 320 321 322 322 322 322 321 323 327 332 326 322 340 354 344 335 335 337 343 348 350 356 356 349 346 349 348 348 348 347 347 347 350 351 353 355 356 358 358 359 360 361 361 361 361 361 362 361 361 361 361 360 360 361 360 359 357
319 321 322 323 322 322 320 320 323 322 322 323 322 324 327 329 328 329 338 346 344 338 336 342 350 354 351 351 349 346 348 350 349 349 348 347 348 348 349 351 351 352 355 356 357 358 359 361 361 361 361 362 361 360 360 360 360 360 360 361 360 359 358
317 320 321 321 320 321 318 317 321 322 320 320 322 324 327 328 329 332 332 331 334 339 340 341 346 348 346 347 351 352 351 349 348 350 351 350 351 350 351 352 351 351 352 353 355 356 357 359 360 360 361 361 361 360 360 360 360 360 360 360 360 359 359
317 321 321 319 319 318 315 317 321 322 323 324 323 325 328 329 329 330 326 325 333 344 343 338 339 341 343 348 351 353 354 352 350 351 352 352 351 352 353 352 351 350 349 350 352 354 355 357 358 359 359 360 359 360 360 360 360 360 360 360 360 360 359
319 322 321 319 317 314 317 325 328 325 324 325 322 324 329 330 331 335 335 337 346 347 340 339 342 343 348 350 345 345 348 349 348 350 351 352 351 351 351 349 348 349 349 349 351 352 354 354 355 356 357 357 359 360 360 361 360 359 360 360 360 360 358
321 322 320 317 315 318 326 335 335 329 324 324 328 336 341 337 336 341 342 341 348 347 340 341 345 347 349 349 345 343 343 344 346 347 348 349 349 349 349 348 349 351 351 350 351 351 351 351 352 355 356 357 358 359 359 360 360 360 360 359 358 358 357
323 321 318 318 321 327 334 337 334 329 328 328 328 332 339 341 339 340 340 340 344 346 342 339 339 342 345 346 345 343 340 341 343 342 343 345 345 345 348 349 351 352 351 349 350 351 350 350 352 353 354 356 357 357 358 359 359 359 359 359 358 357 356
325 320 317 321 325 327 332 335 336 334 332 332 329 327 333 340 339 338 341 344 343 342 340 337 336 340 343 343 344 341 338 339 341 341 342 342 342 344 347 348 350 351 351 350 350 351 351 351 352 353 353 355 355 356 357 358 358 358 358 358 357 355 355
326 322 319 322 321 322 329 335 336 335 332 334 338 334 333 338 338 336 339 342 342 341 340 338 338 341 342 342 345 341 337 337 338 339 341 342 343 347 348 348 350 351 352 352 351 351 352 352 352 353 353 354 355 356 357 357 357 357 357 358 357 355 354
327 324 322 322 319 324 334 338 336 334 331 334 337 329 328 337 339 336 336 338 339 340 340 340 342 343 343 345 345 341 339 340 340 342 344 344 345 347 349 350 352 351 352 352 350 351 352 351 351 352 353 354 356 357 357 356 356 356 356 356 355 354 353
329 327 324 323 323 330 338 336 334 332 332 336 332 321 326 339 340 335 337 337 337 340 341 342 345 347 348 347 343 340 343 346 347 348 349 347 346 348 350 351 352 352 352 352 351 351 352 349 350 351 353 355 356 355 354 353 354 354 354 354 353 352 351
329 330 327 326 328 335 338 333 332 333 332 331 327 323 332 341 339 337 339 337 338 342 343 343 345 344 343 342 341 342 346 348 348 347 348 348 348 349 350 351 351 351 351 352 351 351 350 349 349 350 352 354 353 352 351 352 352 351 350 349 348 348 348
330 332 329 327 328 333 335 331 331 333 331 329 329 333 338 339 337 339 339 338 339 341 341 341 340 338 337 337 339 342 344 346 348 347 345 346 347 348 349 349 350 350 350 350 349 348 349 349 349 349 350 351 351 350 350 350 348 346 345 345 345 345 345
335 335 332 330 332 333 332 332 336 338 336 335 337 337 335 334 335 337 336 336 338 337 336 337 337 335 336 336 337 338 340 342 345 346 346 345 345 345 347 347 347 349 349 348 347 347 347 347 348 348 348 349 349 349 349 347 345 343 343 343 343 344 344
340 341 338 336 336 334 330 332 339 340 338 337 336 334 332 331 332 332 333 334 335 335 336 337 336 335 337 336 337 338 338 338 341 344 346 346 344 343 345 345 345 346 346 346 345 345 345 346 346 346 347 347 347 348 346 343 342 342 343 342 343 343 343
340 344 343 339 335 331 329 331 334 334 332 331 331 330 330 330 331 331 332 333 332 334 336 336 337 337 337 336 337 337 336 337 339 342 344 346 345 344 345 345 345 345 345 345 345 344 344 344 344 345 345 345 346 346 344 341 341 342 342 342 343 343 343
337 338 339 338 335 330 328 329 329 328 328 328 329 330 331 330 330 330 331 331 332 334 335 336 337 338 337 337 337 338 338 339 339 341 343 344 346 347 346 346 346 345 346 346 345 345 344 343 343 344 344 344 345 344 341 340 341 341 341 342 343 343 343
338 336 336 337 335 331 328 329 329 328 328 328 329 330 331 329 329 329 329 330 331 332 335 336 336 336 337 338 339 340 341 341 340 341 342 342 344 345 345 345 346 346 346 346 345 346 345 343 343 344 343 344 344 342 340 340 340 340 341 342 342 342 341
342 341 338 333 331 330 328 328 329 329 328 327 327 327 327 327 327 327 328 329 329 331 333 335 336 336 337 339 339 339 340 342 343 343 343 343 344 344 343 343 344 347 348 347 346 348 347 344 342 343 343 343 342 341 340 340 339 340 340 341 342 341 340
340 339 335 330 331 332 330 327 327 328 327 327 326 326 326 326 326 326 326 326 327 328 330 332 334 335 336 337 338 338 339 341 342 343 344 346 346 345 343 342 342 345 347 347 347 348 346 342 341 342 341 340 340 340 340 339 339 339 340 340 341 340 340
338 337 334 333 337 340 335 331 329 328 327 326 326 326 326 325 326 327 326 325 325 325 326 329 331 332 332 333 333 334 336 338 340 342 344 346 347 346 344 342 342 343 344 344 344 343 341 340 340 340 339 339 339 340 339 339 339 339 340 340 341 340 340
336 334 332 333 337 338 333 330 329 328 327 328 328 327 326 325 325 325 325 325 326 325 325 326 327 328 328 328 329 329 329 332 336 340 342 344 345 344 343 343 344 344 343 343 342 341 339 338 338 338 338 339 339 339 339 338 339 340 340 340 340 340 339
330 328 327 329 331 330 327 326 326 326 326 326 326 326 326 325 325 325 325 325 325 325 324 324 324 325 325 324 325 326 326 327 331 334 336 339 341 341 341 342 343 343 343 343 343 341 338 336 336 336 337 338 338 339 338 338 339 340 339 339 340 340 339
325 325 324 325 326 326 324 323 323 324 324 324 324 324 324 324 324 325 326 325 323 323 323 323 322 324 324 323 324 325 325 325 326 328 331 334 336 338 339 340 341 342 342 341 341 340 337 335 334 335 336 337 337 337 337 337 338 338 338 338 339 339 338

ECMWFFLT2_925_thetae_012.txt.gz
Theta_e
324 322 321 324 323 320 322 321 317 321 329 325 315 313 316 315 315 316 316 320 325 326 333 340 338 337 335 335 337 338 343 347 349 352 354 352 353 354 354 355 357 357 357 359 359 358 358 359 360 360 361 362 362 363 364 366 366 367 368 368 368 367 367
323 323 322 323 324 325 322 316 319 326 329 328 320 315 316 317 315 315 314 317 319 317 322 334 337 335 334 335 335 335 340 347 349 351 353 353 353 353 355 356 357 358 357 359 359 358 358 359 359 361 361 363 363 363 364 366 367 367 367 368 368 367 367
322 324 322 320 322 326 325 322 325 325 319 318 319 315 315 316 316 315 314 315 316 315 319 329 335 336 336 336 335 334 336 345 350 350 351 353 352 353 354 355 357 358 357 359 361 358 358 359 359 361 362 363 364 363 364 365 366 366 366 367 368 367 367
322 322 319 314 316 322 325 325 327 326 320 317 317 317 316 315 314 315 315 314 315 319 327 331 336 338 336 335 336 336 334 339 348 350 350 352 353 353 353 353 356 358 356 358 360 358 357 358 360 361 361 362 363 363 364 364 365 366 366 367 368 367 367
319 317 318 316 316 320 319 318 319 320 321 321 320 319 317 316 315 314 315 314 313 324 336 337 336 337 336 336 336 335 335 334 340 349 351 352 354 354 353 353 354 355 356 357 359 359 357 358 360 360 359 361 361 362 364 363 364 365 366 366 367 368 368
313 315 321 322 320 322 320 318 317 318 320 318 316 316 316 316 315 313 315 313 314 327 338 337 335 337 334 335 335 334 336 334 334 345 350 352 355 354 353 353 352 353 354 356 357 359 358 358 360 360 358 359 359 360 362 362 363 363 363 365 367 368 368
317 320 323 322 321 323 323 322 322 322 322 317 312 313 315 315 314 314 314 312 317 332 338 335 336 336 333 334 335 333 335 333 334 344 349 351 356 356 352 351 351 353 354 356 358 359 359 359 360 360 359 359 359 359 360 360 362 361 360 362 366 368 368
322 323 323 323 323 322 320 321 323 323 321 320 318 318 319 315 313 315 315 312 318 331 338 337 336 335 333 333 333 333 335 334 336 347 351 353 357 358 354 351 351 351 353 356 359 360 362 361 360 361 361 360 359 359 358 359 361 361 360 361 364 367 368
319 320 320 320 320 320 319 319 323 324 323 324 323 322 321 317 313 315 315 311 317 331 340 340 338 335 334 332 332 333 334 334 339 350 355 354 358 359 357 353 353 353 355 358 360 362 364 362 362 363 363 362 360 360 360 358 359 360 361 360 362 366 367
316 316 316 315 317 319 320 320 321 322 322 322 320 317 315 314 314 316 314 312 319 332 339 338 336 337 336 333 332 332 332 338 348 356 358 356 359 361 358 356 356 356 359 361 362 364 365 364 363 364 364 363 361 361 360 359 358 360 361 361 361 364 366
317 316 319 323 323 319 316 318 319 320 322 323 320 315 311 314 316 315 318 320 320 326 335 336 335 335 335 333 333 332 333 343 351 358 359 358 359 360 359 359 359 361 363 363 363 365 366 365 364 365 365 363 362 362 362 360 360 361 362 362 362 363 365
322 324 325 327 327 320 317 318 318 319 322 322 318 312 314 319 315 312 323 329 320 322 334 336 334 335 335 334 334 332 334 341 348 357 360 358 358 359 359 360 362 364 364 365 365 365 366 366 364 365 365 363 363 364 363 362 361 361 363 363 364 364 364
327 329 327 327 326 324 323 322 319 319 321 320 316 315 319 322 315 313 324 330 324 327 333 333 333 335 333 334 334 332 332 333 344 359 362 357 356 358 359 360 363 365 365 367 367 365 367 366 365 365 365 363 364 364 365 365 363 362 363 364 365 365 365
326 328 328 329 326 323 323 323 323 323 322 320 320 320 322 323 319 320 327 329 329 331 331 331 333 333 333 333 333 333 331 331 345 360 360 356 356 357 358 361 362 364 365 367 367 366 366 366 365 365 364 364 365 365 365 365 364 363 364 365 366 366 366
322 327 328 327 326 324 321 321 324 325 322 321 321 321 323 322 320 322 325 325 327 332 332 330 332 332 333 333 332 333 334 336 348 357 357 356 357 356 358 360 362 364 364 366 366 365 366 366 366 365 366 366 366 364 364 365 365 364 364 366 367 366 366
318 323 326 325 326 324 318 317 322 323 321 320 320 322 323 322 320 322 320 317 322 331 333 331 332 332 332 333 334 335 339 344 350 355 357 358 359 359 359 360 362 362 363 365 366 364 364 366 367 366 367 368 366 365 364 364 365 365 364 366 367 367 366
319 323 324 322 321 319 315 317 322 324 324 324 323 323 325 325 324 321 318 318 326 332 331 328 331 332 330 333 336 336 342 351 357 357 358 360 360 360 360 361 362 361 360 362 364 365 364 366 366 366 368 368 367 365 365 364 364 364 365 366 367 368 368
321 323 323 322 319 315 317 323 326 327 325 325 324 323 324 326 327 324 324 326 330 331 328 328 332 333 330 333 340 345 350 356 360 360 358 359 360 360 359 359 359 360 360 362 363 365 365 364 365 366 366 366 367 367 365 365 365 364 365 366 367 368 368
323 323 324 321 317 318 324 327 328 327 326 327 326 326 327 326 326 327 328 330 330 331 331 331 333 335 335 340 349 352 350 351 354 354 355 357 359 358 360 360 359 360 361 360 362 364 363 362 363 364 365 366 367 366 365 365 365 365 366 366 366 368 368
326 324 321 320 322 326 331 333 332 328 328 328 324 323 326 327 327 328 328 329 330 331 332 334 340 343 345 348 352 351 347 346 347 345 346 350 352 354 358 359 360 361 359 357 361 362 361 360 362 363 364 363 362 362 362 364 366 366 366 367 367 368 367
329 324 321 323 324 324 328 332 334 334 333 333 328 322 323 328 328 328 330 332 331 329 333 340 345 344 344 344 345 345 343 345 345 343 342 345 347 350 353 356 358 360 358 357 359 359 359 360 360 360 359 358 358 359 360 364 367 365 366 367 367 367 367
328 324 324 327 322 320 328 335 338 338 336 338 340 329 325 330 333 331 333 334 332 332 339 344 344 342 341 339 340 343 344 343 344 343 342 343 344 347 350 353 357 359 358 357 357 356 356 356 355 356 356 356 358 360 361 364 365 364 365 367 367 367 367
327 324 325 326 321 324 337 342 339 338 334 337 341 328 322 334 342 338 336 336 335 337 342 345 344 341 336 333 338 346 346 343 343 344 344 344 346 348 349 352 355 357 356 355 354 353 353 355 355 356 356 357 361 363 362 361 362 363 364 366 367 367 366
326 326 325 324 323 331 343 341 335 336 335 337 333 320 321 338 347 341 339 338 338 342 345 346 343 339 335 335 344 348 347 347 347 348 348 349 350 351 352 354 357 357 356 356 355 356 358 359 359 358 359 361 364 364 362 360 361 364 365 366 367 365 364
325 326 325 324 326 336 341 337 334 336 336 334 327 321 331 348 348 343 343 340 340 344 346 343 342 343 344 347 350 349 349 352 353 352 351 352 353 353 354 357 358 357 357 358 359 361 362 362 361 360 362 365 364 363 362 362 362 364 365 365 365 363 363
321 324 326 324 327 337 338 334 335 336 333 331 330 333 344 347 344 344 344 340 340 344 344 344 345 348 350 350 351 351 351 353 354 353 352 353 354 355 356 357 356 356 358 359 359 360 360 360 360 362 363 364 363 362 362 362 362 362 363 363 362 361 361
323 324 326 325 328 337 337 335 339 340 336 336 339 343 343 342 342 345 344 343 345 345 346 347 349 349 351 351 352 353 352 352 353 352 353 354 354 354 355 355 355 357 358 357 357 357 356 357 358 360 361 362 362 362 362 361 359 359 359 359 359 358 358
325 322 326 330 335 337 335 336 342 342 340 340 341 340 340 339 341 343 343 345 347 346 347 348 346 347 348 349 350 351 350 351 351 351 352 352 351 351 351 353 354 356 357 357 357 357 357 357 358 359 360 361 361 360 359 356 354 355 356 357 356 356 354
333 329 333 338 338 336 333 334 338 338 336 336 336 337 338 339 339 340 342 343 342 342 343 343 341 342 343 342 344 346 347 349 350 350 349 348 348 350 351 353 353 353 354 356 355 356 357 356 356 356 356 357 358 357 354 352 352 354 355 355 355 353 352
339 337 339 338 335 334 333 332 332 333 332 333 335 336 337 337 337 339 340 341 341 341 340 340 340 341 340 340 342 343 345 348 349 350 351 350 349 351 352 352 352 351 352 353 353 355 356 355 354 354 354 356 358 356 353 352 353 354 354 354 353 351 349
334 334 338 337 334 333 333 332 332 331 331 332 333 335 336 336 336 337 338 339 341 340 341 341 340 339 339 341 343 343 346 347 347 349 351 351 352 354 355 355 352 348 349 351 351 352 353 353 353 353 355 357 356 353 352 352 353 353 353 352 350 349 347
334 335 339 337 334 333 332 332 333 332 331 331 332 333 334 334 334 335 336 337 338 339 340 342 342 340 339 339 340 342 345 347 347 348 349 350 351 353 355 356 355 349 348 349 350 352 354 353 351 352 353 354 352 351 350 351 352 353 352 350 349 347 345
336 337 338 335 333 334 332 330 331 332 331 331 331 331 331 331 331 332 333 334 335 336 338 339 341 342 342 341 341 342 345 347 349 349 348 348 349 350 352 354 354 353 352 352 353 354 355 354 352 352 351 350 349 349 349 350 352 352 350 349 348 346 344
336 336 336 335 335 338 336 332 330 331 331 331 331 332 331 329 329 330 330 331 331 331 333 335 337 338 340 341 340 341 344 347 349 349 349 348 348 349 348 349 350 351 352 351 351 351 352 352 351 349 348 348 347 347 348 349 351 350 349 348 347 345 344
335 334 335 337 340 341 337 333 330 330 331 330 329 330 330 329 328 328 327 328 329 329 329 330 330 332 334 335 336 337 339 342 346 348 348 348 348 347 346 347 349 350 349 348 348 348 348 348 347 346 347 347 346 346 347 348 349 349 348 348 346 344 343
333 333 334 336 337 336 333 330 329 329 330 330 329 328 328 328 327 327 327 327 327 327 328 328 329 330 329 328 330 332 332 335 340 344 344 345 347 346 345 347 349 350 350 349 349 349 347 346 345 345 346 346 347 347 348 348 349 349 348 347 345 344 343
331 332 332 333 333 331 329 329 330 329 328 329 329 328 327 327 327 327 328 328 327 326 326 326 327 330 329 327 327 328 328 329 334 338 340 340 342 343 344 345 347 348 349 349 349 349 348 346 346 346 347 347 348 348 348 348 349 349 348 346 345 344 343

ECMWFFLT2_925_thetae_015.txt.gz
Theta_e
326 324 323 325 321 317 322 322 317 320 329 326 314 313 316 314 314 316 315 315 322 328 332 337 340 339 339 339 338 337 338 340 339 340 347 351 349 348 350 354 357 355 355 358 360 358 359 358 357 356 355 356 358 359 361 364 366 367 368 368 368 368 367
326 325 323 325 324 323 321 316 319 327 330 328 319 314 315 315 314 315 313 313 316 316 321 334 342 339 339 340 338 338 338 338 338 338 342 350 352 351 352 355 358 357 355 357 360 359 357 358 358 357 357 357 358 358 359 364 367 368 367 368 369 368 368
325 327 324 320 322 326 323 320 326 325 317 316 317 314 314 315 315 315 313 313 314 313 317 331 339 338 339 340 339 338 337 336 338 339 340 347 350 350 352 356 358 358 356 356 359 359 357 358 360 359 357 358 359 358 360 364 367 367 366 367 369 369 369
325 325 321 315 316 322 323 323 327 326 319 316 316 316 315 314 314 315 314 313 314 318 326 334 338 340 339 340 340 339 336 336 337 337 339 343 348 351 353 354 357 357 357 357 359 358 356 358 360 360 358 358 359 358 359 363 365 366 365 364 367 370 370
322 319 320 318 317 319 318 316 317 319 321 320 319 317 314 314 314 314 316 314 313 324 335 337 338 340 338 339 340 338 337 336 336 338 339 340 348 353 353 354 356 357 357 358 359 358 355 356 359 359 358 358 359 358 359 360 361 364 363 361 364 369 370
315 317 324 326 323 323 320 316 315 317 319 317 315 315 315 315 313 313 315 314 315 327 338 337 337 339 337 338 338 337 337 336 337 339 337 340 349 353 355 354 354 356 358 358 359 358 355 353 357 359 356 357 357 355 357 357 356 360 361 359 362 368 370
319 323 326 325 323 325 324 321 321 323 321 316 311 311 313 313 313 314 314 312 318 332 339 336 337 338 337 337 337 337 338 336 337 337 336 345 354 356 355 351 351 355 358 359 361 360 357 354 357 358 354 352 353 352 353 354 354 354 356 356 360 367 371
323 325 326 326 326 325 322 321 324 323 321 320 318 318 318 314 312 314 314 312 318 332 340 337 337 338 337 336 337 337 337 336 337 338 341 349 354 358 357 352 351 354 356 361 364 364 363 359 358 358 353 349 349 350 350 353 352 351 352 353 357 366 371
318 317 320 320 321 322 320 321 324 324 323 324 323 322 321 316 312 314 315 312 317 331 342 338 336 338 336 336 336 336 337 338 336 336 344 350 352 357 361 356 354 355 358 366 369 370 370 363 358 359 355 349 348 349 349 350 352 351 350 350 354 365 371
314 313 313 314 316 319 320 321 323 324 324 323 319 315 314 313 314 316 315 312 319 333 341 337 335 337 337 337 337 335 336 338 336 339 348 353 356 363 365 359 357 359 365 370 372 374 372 364 360 362 358 350 347 349 349 349 350 350 350 350 351 360 368
316 315 317 323 322 317 315 318 320 321 324 324 320 314 311 313 315 315 318 319 319 326 337 337 336 336 336 338 337 336 336 337 336 347 360 361 360 366 365 361 360 364 369 371 371 371 370 364 362 364 360 355 349 349 350 350 349 351 352 351 350 356 365
323 325 325 328 326 320 316 317 318 320 322 323 319 313 314 318 314 310 322 328 319 322 335 339 336 337 338 338 338 336 338 337 334 347 364 366 364 365 365 362 363 366 367 369 370 368 367 366 365 365 363 360 356 353 353 352 350 350 352 354 353 354 361
327 330 328 328 327 324 323 321 319 320 322 320 317 315 319 322 315 312 323 329 323 327 336 335 334 338 337 336 338 336 336 338 335 340 351 355 360 364 366 365 365 366 366 369 370 368 368 369 367 366 365 364 362 358 359 357 353 350 352 356 357 356 359
326 328 329 329 327 324 324 324 324 324 323 321 319 320 323 323 320 321 326 327 327 331 333 332 333 335 335 336 337 335 335 337 338 338 338 338 346 357 365 367 367 366 367 370 370 370 370 369 368 368 367 366 366 363 362 361 356 352 353 358 361 361 362
321 327 329 328 326 324 321 322 326 326 324 324 321 321 322 322 320 324 325 324 327 331 333 332 334 335 336 337 337 337 338 337 337 336 335 335 337 342 354 365 368 368 369 370 371 371 370 369 369 370 369 368 367 365 364 364 360 356 355 360 365 365 365
319 326 329 327 327 325 319 319 323 324 322 322 322 324 324 321 319 321 319 317 323 330 331 332 334 336 336 336 336 337 338 338 337 336 335 336 338 337 343 358 370 370 368 371 372 370 368 369 370 370 370 369 367 365 364 364 362 359 359 364 368 368 368
319 325 327 325 324 322 318 319 323 326 326 325 324 325 327 325 323 320 316 318 325 330 329 330 333 334 335 336 337 337 340 343 341 339 337 336 336 337 338 352 367 370 368 370 372 370 369 370 371 370 370 370 368 365 365 365 364 362 362 368 370 371 372
319 324 326 324 322 318 319 325 328 329 328 326 325 324 326 328 327 324 324 325 329 330 329 330 330 332 336 337 337 338 340 343 342 338 337 337 335 336 341 349 358 366 369 370 371 373 372 370 370 370 369 369 368 366 365 366 366 364 364 369 372 372 372
321 323 325 323 319 320 326 330 331 330 328 328 329 328 328 328 328 328 329 328 329 330 330 330 330 332 333 334 336 337 335 336 338 336 337 339 337 339 348 351 353 362 370 371 371 373 371 368 368 368 367 368 367 365 364 366 367 366 366 370 372 372 371
324 323 323 323 324 327 331 332 330 329 330 329 326 325 328 329 329 330 329 329 330 329 329 329 330 331 331 331 333 336 334 333 335 333 333 338 341 344 351 355 359 367 370 368 370 373 369 367 368 367 366 368 366 364 365 366 367 368 368 370 372 372 370
326 322 320 323 324 324 327 332 335 334 333 333 329 326 329 333 331 330 329 330 329 329 329 330 330 330 331 332 333 332 331 332 333 333 331 335 339 343 349 355 363 369 368 367 371 371 368 366 367 367 367 367 365 364 366 368 369 370 370 371 372 371 368
326 323 320 323 321 319 326 336 341 340 336 337 338 332 330 334 334 331 330 331 330 330 330 330 332 333 332 333 333 331 331 333 334 334 335 337 337 338 346 355 363 368 367 367 369 368 367 365 365 366 366 366 366 366 367 369 369 369 371 371 371 370 368
325 323 321 322 319 322 335 344 342 339 336 338 338 328 324 329 333 330 329 329 330 331 331 331 332 333 333 334 335 334 335 335 336 337 340 341 338 339 346 354 361 367 366 365 366 367 365 364 366 367 367 366 366 366 367 368 367 368 371 371 370 369 367
323 324 322 322 321 328 342 343 338 337 336 338 334 322 322 336 343 341 342 338 330 329 332 333 332 333 335 335 336 336 334 331 335 341 344 343 340 341 346 353 361 365 364 364 366 365 363 365 367 366 364 363 364 365 367 368 367 369 370 370 369 368 366
321 322 321 321 325 334 342 339 337 338 336 333 328 324 334 349 350 348 351 348 339 333 332 333 332 334 336 335 337 343 345 341 344 347 348 347 346 344 345 352 360 363 362 364 364 362 364 366 364 361 362 364 365 367 367 367 367 369 369 369 369 367 364
320 321 322 320 325 337 342 337 336 337 333 329 330 336 347 350 346 346 350 349 347 342 336 333 333 333 333 334 338 346 352 354 354 354 352 351 351 351 355 359 362 363 363 363 360 359 361 361 358 360 365 366 366 365 365 366 368 369 370 369 366 364 363
321 320 321 321 325 337 341 337 336 338 336 336 341 345 345 342 343 346 347 348 350 346 341 339 337 334 333 337 341 347 354 357 357 355 354 354 355 358 360 360 360 360 360 360 360 360 360 360 362 366 368 368 367 365 366 368 369 370 370 367 364 363 362
321 316 320 326 332 337 338 337 340 342 341 343 345 343 340 341 343 344 345 349 350 348 348 346 342 340 344 347 350 354 357 357 357 358 358 359 359 359 359 358 359 362 363 364 364 364 363 364 367 368 369 370 369 368 369 369 368 369 368 366 364 362 360
328 325 330 337 339 337 335 336 339 341 340 340 340 339 340 343 343 342 345 347 347 347 351 352 350 351 354 354 356 357 356 357 358 360 360 359 358 357 357 358 361 363 364 365 364 364 365 366 367 367 369 370 370 369 368 366 366 366 365 364 363 361 358
340 339 341 341 338 336 333 333 335 336 337 338 340 341 342 343 343 343 344 344 344 346 350 351 352 353 353 353 354 354 355 356 356 357 357 358 357 357 357 359 361 360 361 361 362 364 365 364 366 367 368 368 367 365 364 363 363 362 361 360 360 358 355
339 340 342 341 338 338 335 334 335 335 336 338 339 341 342 341 342 343 343 344 344 344 346 347 349 349 349 351 352 353 355 356 355 356 356 354 353 354 354 355 355 355 355 354 354 357 357 357 358 360 361 362 361 360 361 362 362 361 360 359 357 355 353
339 341 342 340 338 339 337 336 336 335 334 336 336 338 340 339 339 340 341 343 344 344 344 344 345 345 345 346 348 349 351 353 355 356 358 356 355 354 353 352 352 352 353 352 352 354 354 353 353 356 357 358 357 358 360 361 361 360 358 356 354 352 350
340 342 341 338 338 339 338 336 337 336 335 334 334 334 335 335 335 336 336 338 339 341 342 342 343 344 345 346 348 348 349 350 350 351 352 354 355 356 357 357 356 357 359 359 358 358 356 354 353 353 355 355 355 357 358 359 359 357 355 353 352 350 348
340 340 339 338 339 339 337 335 335 335 334 334 333 333 333 333 333 332 332 333 333 333 334 336 338 339 341 343 345 346 348 351 350 348 348 347 348 351 353 353 353 355 356 357 358 357 355 353 352 351 351 351 352 355 357 357 356 355 353 352 350 348 347
340 339 338 339 339 338 337 335 333 332 332 332 331 331 331 330 330 330 330 331 331 331 331 332 333 334 334 335 337 339 341 344 346 348 348 347 347 349 351 351 352 352 352 352 353 352 351 350 349 348 348 348 350 353 356 356 355 353 352 350 348 347 346
338 338 338 337 336 335 334 333 331 331 331 331 329 329 328 327 327 327 327 328 329 330 330 329 330 331 332 331 332 333 334 336 339 342 344 345 346 348 350 353 355 354 353 353 351 350 349 348 347 347 347 348 350 353 354 354 353 352 351 350 347 346 345
337 337 336 334 333 332 331 330 329 330 331 330 329 329 328 327 326 325 326 326 327 327 328 328 327 328 329 329 330 330 331 331 332 334 337 339 340 343 345 348 351 353 353 352 351 351 350 349 349 350 350 350 351 352 352 352 352 351 350 348 346 345 344

ECMWFFLT2_925_thetae_021.txt.gz
Theta_e
328 328 327 329 324 319 320 319 314 317 324 323 314 314 316 315 316 318 315 317 326 331 339 345 343 342 343 345 346 345 347 350 347 348 350 349 348 349 350 353 354 358 359 353 351 352 354 355 357 357 356 356 357 359 361 362 362 363 362 362 362 362 363
327 328 327 329 327 324 320 314 316 323 327 324 318 314 315 316 317 317 314 315 320 320 326 341 346 342 342 343 344 343 346 350 349 350 350 349 350 352 352 354 353 355 359 357 352 352 354 356 356 357 356 356 357 358 361 362 362 363 363 363 363 362 363
327 328 326 324 325 326 322 319 324 324 317 315 315 314 314 316 316 315 314 315 318 318 326 338 341 343 345 344 344 343 343 348 350 349 350 350 351 354 354 354 354 354 355 355 353 352 354 355 356 357 357 357 358 359 361 362 362 363 363 363 363 363 363
327 327 324 317 318 325 325 323 325 324 318 315 314 314 315 316 316 316 317 316 317 325 338 343 344 345 346 343 346 345 341 345 348 348 351 352 352 354 353 352 353 354 352 352 352 352 353 356 356 357 357 357 358 359 361 362 362 363 363 363 363 363 363
324 321 322 320 319 320 320 318 317 317 319 319 317 315 314 314 316 317 319 316 317 334 348 347 348 347 343 344 345 345 344 344 345 347 350 351 352 353 351 350 350 351 352 351 351 352 354 356 357 357 357 357 358 360 362 362 363 363 364 364 363 363 364
317 319 327 327 325 325 321 317 316 316 317 315 314 314 314 313 313 315 317 315 320 340 346 343 351 349 341 343 346 345 345 343 343 346 349 350 351 351 350 349 348 349 353 352 351 352 353 356 358 357 357 357 357 359 361 362 363 363 363 364 364 364 365
320 326 330 328 325 327 326 322 323 322 319 314 310 312 316 313 312 314 314 314 325 348 345 345 360 358 344 341 347 347 344 342 343 346 348 350 350 350 348 347 348 351 354 353 352 353 352 355 358 357 357 358 357 358 360 361 363 363 363 364 364 364 365
326 328 328 328 329 327 324 323 324 323 320 317 315 319 324 317 312 315 315 312 321 342 348 349 357 360 349 341 344 347 343 342 341 343 350 351 350 351 349 347 349 353 355 355 355 357 355 355 356 358 357 357 357 358 359 361 362 363 363 364 364 364 364
319 322 324 323 322 324 323 323 325 324 323 323 319 320 324 318 314 316 316 314 323 341 351 354 355 354 348 343 344 343 344 345 340 341 350 352 350 351 351 349 352 355 357 358 359 361 358 355 356 358 357 357 357 357 358 359 361 362 363 364 365 365 365
315 315 317 318 318 320 323 325 325 324 324 322 318 314 314 318 321 319 313 316 329 344 342 344 354 353 345 346 347 340 343 345 341 347 353 351 352 354 355 355 356 358 359 360 364 367 361 356 357 357 357 357 357 356 357 358 359 361 362 363 365 365 365
317 318 322 329 327 320 317 320 323 324 325 323 321 313 309 317 324 321 319 322 326 335 342 340 347 351 346 350 350 346 355 358 356 366 363 352 353 356 354 355 357 360 363 363 367 368 361 357 358 358 357 357 357 356 356 356 358 359 360 362 364 365 366
323 329 332 334 331 322 318 320 321 323 326 324 319 314 312 318 318 315 329 337 323 324 338 340 345 350 349 358 358 348 360 370 369 372 366 354 354 354 351 352 356 362 365 365 366 366 361 356 358 360 359 357 357 356 355 356 357 359 361 362 364 365 366
325 330 330 330 331 327 324 323 322 323 325 323 318 316 320 323 317 313 328 343 336 336 338 336 346 353 347 354 359 347 358 372 368 365 360 355 353 352 352 355 360 365 368 367 368 365 360 357 356 358 360 358 358 356 355 356 356 358 361 363 364 365 365
324 326 327 328 327 326 325 324 325 324 324 324 321 322 325 325 324 323 327 338 344 348 344 338 349 361 355 356 355 345 356 371 368 364 361 356 354 355 356 360 363 365 366 367 368 367 365 360 356 358 360 358 358 357 355 356 356 357 360 362 364 364 364
321 323 326 327 324 324 322 322 327 326 324 324 322 324 325 323 325 329 330 330 332 339 344 342 348 358 357 358 355 345 350 360 361 365 365 360 361 363 365 367 367 366 365 366 369 370 370 365 358 357 360 360 358 357 356 356 355 356 356 360 362 362 363
320 323 325 325 324 324 319 318 324 324 322 323 322 324 325 324 325 326 326 326 330 340 346 341 341 347 348 354 359 355 357 359 354 356 362 363 366 368 370 373 372 369 370 371 372 371 369 366 360 358 360 360 359 358 357 356 355 354 355 357 359 360 361
319 324 325 324 322 319 315 318 324 326 326 325 324 326 328 326 325 323 322 329 343 356 352 340 337 340 340 350 358 356 362 369 359 350 352 357 361 365 369 371 370 369 370 375 378 372 366 365 363 360 359 360 360 359 357 356 355 353 353 355 356 358 359
319 324 326 325 322 315 316 324 329 329 330 329 327 327 329 329 327 324 326 335 346 350 347 344 343 339 334 342 355 357 358 368 368 357 351 350 351 358 366 368 370 368 367 373 377 372 367 366 364 362 360 359 360 359 357 355 354 353 352 353 355 356 357
322 325 325 323 321 321 326 332 333 331 330 332 332 332 332 331 330 328 329 332 336 336 338 344 351 358 354 351 360 365 355 358 370 364 357 360 360 362 367 368 368 370 368 371 376 373 368 367 366 364 361 360 359 359 357 354 353 352 351 351 353 353 355
322 323 322 322 325 331 334 336 335 335 337 336 333 332 336 337 336 339 341 340 345 349 348 348 351 356 355 351 360 369 358 356 367 364 358 364 364 362 368 370 371 373 369 367 370 371 368 367 367 366 362 361 361 359 357 354 351 350 349 350 353 352 353
321 319 318 322 324 326 331 335 335 337 338 338 337 334 339 346 345 348 351 350 350 353 354 358 357 350 346 344 350 357 351 347 353 352 348 351 351 353 360 366 369 367 364 362 362 364 367 366 366 367 365 363 363 361 358 356 352 349 348 350 354 353 352
326 319 318 322 321 320 328 335 338 339 336 340 350 347 344 352 353 351 354 355 355 357 358 362 363 356 354 351 346 343 340 338 338 340 339 335 337 341 347 357 367 365 361 362 362 362 366 366 365 366 366 365 364 364 361 359 356 353 348 350 355 355 353
328 321 318 319 317 322 337 343 339 340 337 341 352 345 339 353 359 352 352 357 359 363 365 365 363 358 357 354 346 340 336 334 331 328 329 336 344 348 343 347 363 369 364 362 365 365 365 365 365 366 366 365 365 365 363 362 362 359 353 353 357 356 355
330 327 323 320 321 333 352 349 338 339 339 341 341 332 335 356 360 351 352 356 358 362 364 365 363 360 358 357 354 348 342 345 347 340 342 359 368 366 357 349 355 366 368 367 369 370 367 365 366 366 366 366 365 365 365 363 363 363 360 359 360 359 361
330 329 326 323 328 345 356 346 340 340 340 340 334 333 349 363 355 350 352 352 353 358 359 361 364 362 359 357 358 356 354 361 369 362 361 370 369 362 361 356 353 361 369 370 370 370 368 367 367 366 366 366 365 365 366 364 363 364 365 365 366 366 368
329 333 334 330 332 343 348 346 345 343 340 339 338 347 361 358 349 351 353 349 351 355 356 360 362 359 355 353 354 356 356 359 365 364 364 370 369 362 362 362 356 357 366 370 370 371 370 368 367 366 365 365 366 366 366 365 364 365 368 370 371 371 372
333 342 346 341 337 340 340 345 353 354 351 352 357 356 354 349 348 352 351 349 353 355 355 358 357 355 354 352 351 352 352 352 355 358 358 362 364 363 366 370 364 361 367 370 368 370 372 369 367 368 366 365 366 366 366 365 365 368 372 373 373 373 372
340 342 342 340 340 342 341 343 355 360 360 361 360 352 347 348 349 351 352 352 353 354 356 355 353 352 351 349 348 349 349 348 350 352 353 354 354 355 360 365 363 364 371 372 366 366 372 372 369 368 367 367 367 366 366 367 368 372 374 373 373 372 370
344 343 341 340 341 343 343 344 351 354 351 350 349 346 346 347 346 347 351 352 352 353 353 351 350 349 348 347 346 345 345 346 347 348 349 351 352 353 354 353 352 354 361 361 357 358 364 368 369 369 368 367 366 366 368 370 371 374 374 372 371 369 367
343 344 344 343 342 341 342 344 347 347 344 342 343 342 341 339 338 339 342 345 349 351 349 348 349 349 348 348 346 343 344 345 345 346 347 347 348 350 353 353 348 347 352 354 350 351 354 357 363 369 369 368 366 367 370 372 372 372 371 369 368 366 364
341 345 345 345 344 341 340 341 343 343 340 338 337 337 335 334 333 333 333 337 341 344 345 347 348 346 347 348 346 344 345 344 344 345 346 345 345 347 350 352 348 347 352 355 354 356 355 351 351 359 367 370 370 371 373 372 371 370 368 366 365 362 361
340 344 344 344 344 340 336 338 342 341 337 336 335 333 332 331 330 330 330 330 332 335 338 341 343 343 343 345 345 346 346 345 345 345 345 345 345 345 347 349 348 348 349 349 350 352 351 347 345 348 355 362 367 370 371 369 366 365 363 361 360 358 356
339 342 342 342 345 342 336 336 340 339 334 332 332 330 329 330 330 329 328 326 327 329 331 332 334 335 336 338 340 341 343 345 345 345 345 346 345 344 346 347 349 349 346 344 346 347 344 343 344 345 346 350 354 356 357 356 355 355 355 355 354 352 351
340 342 341 341 344 344 339 336 337 337 334 331 330 330 330 330 331 330 327 324 324 325 327 329 329 329 330 331 332 333 335 340 345 346 346 346 345 344 345 346 348 349 347 346 347 346 343 343 343 343 346 348 349 348 349 349 349 350 351 351 351 350 349
338 338 337 339 342 342 340 337 335 335 333 331 330 330 330 330 330 329 326 324 323 324 325 326 327 327 327 327 328 329 329 331 336 340 343 345 346 345 345 346 347 348 349 348 345 343 343 343 342 343 346 347 347 348 349 349 349 349 349 349 349 349 348
335 335 336 338 339 339 338 337 334 333 333 331 330 329 328 328 328 326 325 324 324 324 324 324 324 326 325 324 326 327 326 326 329 331 334 337 340 342 344 347 348 347 348 348 345 342 343 343 342 343 345 345 344 347 348 348 349 350 349 348 348 347 345
334 335 335 337 338 337 337 336 334 334 333 331 330 330 328 327 326 325 325 325 325 325 324 324 324 324 323 323 324 326 327 327 328 329 329 330 332 334 339 344 347 347 347 348 347 345 343 342 342 345 347 348 347 349 350 349 350 350 349 348 346 344 344

ECMWFFLT2_925_thetae_024.txt.gz
Theta_e
326 325 328 326 321 321 321 318 313 317 324 318 315 319 320 316 317 320 319 322 332 335 338 343 342 343 344 345 347 346 346 347 347 347 346 343 344 344 344 345 345 345 346 346 346 347 350 352 353 354 354 354 355 356 357 358 358 358 359 359 359 358 358
325 325 327 327 325 326 321 314 315 322 324 320 319 315 313 313 314 319 317 316 321 322 328 344 347 343 344 345 346 346 346 347 346 347 347 345 345 345 345 347 346 346 346 346 347 347 349 352 353 353 353 354 354 355 357 358 359 359 359 359 359 359 359
325 328 325 323 326 325 322 320 323 323 316 313 316 315 313 313 313 315 316 317 321 321 329 345 344 342 347 344 344 346 345 347 346 345 347 347 346 346 345 346 347 346 346 346 346 346 348 351 353 354 354 354 355 356 357 358 359 359 359 359 360 359 359
325 327 323 318 320 324 326 324 323 324 319 313 314 314 316 316 316 317 316 316 322 331 344 350 343 343 346 342 344 346 343 346 346 344 345 347 347 347 345 346 346 346 346 345 345 346 348 350 353 354 354 354 355 355 357 358 359 359 359 359 360 360 360
322 320 322 320 319 322 322 319 317 318 317 317 316 314 317 319 322 324 320 315 323 345 360 355 347 343 342 342 344 344 342 343 344 345 344 345 347 347 346 346 346 346 347 346 345 346 348 349 352 354 354 354 355 355 357 358 359 360 360 360 359 360 360
315 318 326 326 325 325 322 319 318 316 316 317 313 312 316 317 319 325 323 317 325 347 354 351 352 345 340 342 342 341 343 342 342 344 344 344 347 347 346 346 345 346 348 348 346 346 348 350 352 354 354 354 354 355 357 358 359 360 360 360 360 360 360
319 323 327 326 324 327 325 323 323 321 320 316 311 316 323 317 314 322 323 316 324 348 358 353 354 348 339 339 340 340 340 340 342 344 343 345 346 347 346 345 345 346 348 349 348 347 348 350 352 354 354 355 355 355 357 358 359 360 360 360 360 360 360
321 324 327 327 326 326 323 322 324 322 320 317 318 330 335 320 312 317 317 311 319 348 362 346 348 354 345 338 338 341 340 339 342 344 345 346 346 347 347 346 347 347 346 350 352 352 351 350 352 354 354 355 355 355 356 358 359 359 360 361 360 360 361
318 319 319 320 322 323 321 322 324 323 323 321 319 328 329 319 316 317 313 310 323 356 361 332 339 354 352 344 339 340 342 340 341 345 347 348 347 347 348 347 348 348 349 352 354 355 353 350 353 354 353 355 355 355 357 358 358 360 360 361 361 360 361
315 314 316 321 322 320 321 324 323 322 324 321 317 317 314 315 320 320 314 317 333 359 353 329 332 342 346 351 344 339 343 340 340 345 347 349 350 349 350 350 350 353 355 355 355 355 353 350 353 354 354 355 355 355 357 358 359 360 360 361 361 361 361
316 314 322 337 334 319 316 320 321 322 324 321 320 315 310 319 324 318 322 331 331 336 341 334 331 329 334 346 348 343 345 343 341 345 347 350 350 350 350 350 351 356 359 357 355 355 352 350 353 354 354 355 355 355 356 357 359 360 360 361 361 361 362
321 321 325 334 331 320 317 320 319 320 324 322 319 313 314 327 321 309 327 346 326 324 343 340 334 335 336 346 353 348 347 348 349 350 350 350 349 349 351 350 352 358 359 357 356 356 352 350 352 355 354 354 354 355 356 357 358 360 360 361 362 361 361
323 324 325 325 327 326 323 322 320 320 322 320 317 316 320 328 318 309 331 353 334 332 344 337 335 340 340 349 357 349 345 348 356 360 355 350 349 349 350 351 352 355 356 356 356 356 354 351 351 354 355 355 355 355 355 357 358 359 361 361 361 362 362
323 323 326 325 324 325 324 324 324 321 322 321 319 321 323 325 322 320 336 350 343 344 349 341 341 347 346 349 352 348 348 350 356 365 361 352 350 349 349 351 351 352 356 356 356 357 357 354 352 353 354 355 355 355 355 356 358 359 360 361 362 362 362
322 320 325 326 323 325 322 323 327 323 322 322 320 321 323 323 323 325 332 336 337 345 352 347 348 360 360 351 349 354 359 356 354 358 359 353 350 350 349 349 349 350 353 356 357 358 359 357 353 352 354 355 355 355 355 355 357 358 359 361 362 361 362
323 321 322 323 322 323 319 319 324 324 321 321 320 322 324 323 324 327 325 323 329 341 349 341 340 353 354 348 356 362 364 365 361 357 357 353 349 349 349 349 350 351 353 355 358 358 357 355 353 353 354 355 355 355 355 355 356 357 358 359 360 361 362
327 324 321 321 320 318 315 317 322 324 324 325 323 325 327 326 329 328 322 325 338 350 349 339 336 342 346 353 366 366 364 371 369 362 359 357 352 351 351 351 353 352 352 354 357 356 354 352 353 355 355 355 355 355 355 355 355 355 358 358 359 361 361
328 325 323 321 316 313 318 324 327 327 327 328 325 324 327 327 327 328 326 331 346 355 350 343 338 339 344 352 359 358 358 364 367 364 362 358 355 353 351 351 352 351 353 354 354 352 351 351 352 355 356 356 356 356 355 355 355 355 357 358 358 359 360
329 327 324 318 313 319 333 338 333 329 327 330 333 336 339 337 330 332 336 337 341 348 347 343 344 346 347 350 350 347 347 351 357 362 361 359 358 355 353 353 353 352 354 354 354 352 350 351 353 353 356 357 356 356 356 355 355 355 356 357 358 359 360
329 327 323 320 321 332 342 339 334 335 333 330 335 339 346 351 345 344 351 353 352 354 351 347 350 352 350 350 349 346 348 349 348 350 354 355 355 354 354 355 355 355 353 350 351 351 350 352 353 353 354 357 357 356 356 355 355 355 355 356 358 358 360
331 327 324 324 326 327 332 335 337 340 339 335 337 340 346 357 354 349 354 362 362 361 361 356 351 350 353 359 357 352 354 354 346 342 345 345 349 355 354 353 353 351 349 348 348 349 351 353 355 354 354 355 356 357 356 356 355 355 354 355 356 357 359
334 329 325 323 321 323 332 340 341 342 343 344 347 349 352 360 360 353 359 369 367 366 371 366 356 355 360 367 364 359 357 355 350 350 348 340 340 351 355 357 359 352 349 351 350 352 355 356 355 356 356 355 356 356 356 356 355 354 354 354 354 356 358
336 331 327 321 321 329 341 345 342 339 342 347 352 352 353 362 361 355 359 366 364 366 374 378 376 377 377 375 369 362 358 355 354 358 360 351 345 349 351 353 358 354 352 354 353 354 359 359 358 359 358 356 356 356 356 356 355 354 354 353 353 354 355
337 335 331 325 326 337 343 342 339 338 341 344 343 340 346 360 359 354 356 362 362 360 367 381 389 389 387 384 373 358 352 353 353 354 358 357 358 359 355 352 353 351 352 357 357 356 358 360 362 361 360 359 357 356 357 356 355 355 354 354 354 353 353
339 337 335 330 334 342 341 338 339 340 340 338 335 335 350 359 354 352 354 358 360 359 363 376 380 371 367 366 359 350 348 352 352 351 352 353 354 355 354 354 354 353 354 357 357 356 356 359 362 362 362 362 359 357 357 356 355 355 354 354 354 352 352
342 340 340 337 337 341 337 335 340 342 336 336 338 347 359 356 352 355 355 355 358 358 358 362 361 355 351 349 347 347 347 348 350 349 349 352 354 354 352 351 350 353 359 361 358 357 357 358 359 361 362 362 361 359 358 357 357 356 354 354 353 352 352
345 342 343 343 341 340 336 337 343 344 341 345 350 353 353 350 351 355 355 355 356 354 352 352 350 348 347 345 345 346 346 346 347 347 345 348 351 352 352 351 348 352 364 366 359 359 362 361 361 361 361 361 361 361 359 359 359 357 355 354 352 351 351
346 343 343 344 342 338 335 337 342 342 341 347 351 350 349 351 352 353 354 355 352 349 349 350 348 347 347 346 345 345 345 345 345 345 345 345 346 347 349 350 347 350 359 360 354 358 364 364 363 363 361 362 361 360 361 361 361 360 358 355 353 350 351
344 344 344 344 341 337 335 336 339 338 336 337 340 342 344 347 348 350 352 350 348 347 348 348 348 348 346 345 345 344 345 345 344 345 344 344 345 346 346 347 346 347 354 355 351 354 359 361 363 363 362 362 360 357 359 362 362 363 361 359 357 355 354
341 342 342 342 340 338 336 336 336 336 333 331 332 335 338 339 341 344 346 345 345 345 344 345 346 345 344 345 345 344 344 344 344 345 345 343 344 345 346 346 345 344 347 350 349 350 351 352 356 358 358 361 360 357 358 361 363 366 367 365 363 361 361
341 341 341 340 340 339 336 336 336 335 333 330 329 331 333 333 334 335 337 338 339 337 337 338 338 337 338 340 340 341 342 344 343 344 344 344 344 345 346 346 344 343 344 345 345 346 347 348 351 351 353 355 357 356 358 360 363 366 367 366 364 364 364
342 344 340 337 339 338 335 335 337 335 333 332 330 328 328 328 328 329 330 330 330 330 331 331 331 331 331 332 333 335 337 339 341 341 342 343 343 344 345 346 345 344 343 343 344 345 345 347 348 349 350 351 353 355 357 359 362 363 360 357 357 356 357
341 343 339 337 340 341 337 335 335 335 333 332 330 328 325 324 325 326 326 327 327 327 327 328 328 328 328 328 330 331 332 334 335 336 338 340 340 342 344 346 346 345 342 342 343 344 345 346 347 347 348 350 353 356 359 361 362 357 353 352 351 348 347
342 340 337 337 340 341 338 335 334 335 334 332 330 328 325 323 323 323 323 324 324 324 324 325 326 327 327 327 328 329 330 332 333 334 336 338 338 340 343 345 346 344 342 342 343 343 345 346 346 346 346 348 350 353 355 357 356 351 349 350 349 346 344
340 336 335 336 338 339 337 335 334 336 335 333 331 328 325 323 322 322 321 322 323 323 324 324 324 326 327 327 327 327 328 329 330 331 334 337 339 340 342 344 346 344 343 342 342 343 344 345 346 346 347 347 347 348 349 350 349 347 346 345 345 344 343
335 333 334 335 337 338 336 333 334 336 336 333 331 329 327 324 323 323 323 323 323 323 324 324 325 326 327 327 327 327 326 326 327 328 331 334 337 338 340 342 344 344 344 343 341 341 343 344 345 345 346 346 345 345 345 345 344 343 342 341 341 341 341
332 331 332 333 336 336 334 333 334 334 334 333 331 329 328 326 325 325 326 326 326 324 324 325 325 325 326 327 328 328 327 325 325 326 329 332 333 334 336 338 340 343 344 344 343 342 342 343 343 344 344 345 344 343 344 343 342 340 340 340 340 340 339

ECMWFFLT2_925_thetae_027.txt.gz
Theta_e
325 324 325 325 321 321 320 317 315 317 323 319 313 316 321 316 314 318 320 323 330 332 336 341 339 340 344 341 341 340 339 340 338 338 338 338 339 339 340 343 345 345 346 346 345 346 346 348 349 349 350 350 351 352 353 352 352 353 353 354 355 355 355
324 323 324 324 323 324 320 314 315 320 320 319 319 314 312 311 312 317 319 318 319 322 331 346 346 341 343 343 342 341 342 343 341 339 339 338 339 340 339 342 343 344 346 346 346 346 346 347 348 349 350 350 351 352 353 353 353 353 353 354 355 355 355
323 324 322 321 323 324 321 319 320 321 315 313 317 316 312 311 311 313 318 320 319 320 329 342 344 342 345 344 343 343 341 343 343 340 340 339 338 339 340 340 341 342 344 344 345 345 346 347 348 349 350 350 351 352 353 353 353 353 354 354 355 355 355
322 324 322 316 318 322 322 321 320 322 319 312 314 317 314 314 313 312 315 316 317 325 337 343 343 346 346 342 343 345 341 342 343 341 341 340 339 340 340 339 340 341 341 343 344 345 345 346 347 349 350 350 351 351 352 353 354 353 354 354 354 355 355
320 320 322 319 319 321 319 317 315 315 317 315 315 316 315 316 319 319 316 311 315 334 349 350 351 350 345 343 343 342 342 342 342 343 342 342 341 340 340 340 340 340 340 341 341 344 345 345 346 348 350 351 351 351 352 353 354 354 354 355 355 355 355
315 318 325 324 323 324 321 318 316 314 315 315 313 312 315 316 318 322 320 310 313 336 346 345 354 352 341 343 342 340 342 342 341 342 342 343 343 341 340 341 339 340 341 341 340 342 344 345 346 348 349 351 351 352 352 353 354 355 355 355 355 356 356
318 322 325 325 323 325 325 322 321 319 319 316 310 310 316 316 315 322 322 312 315 339 349 344 352 354 343 341 342 341 341 340 342 343 341 343 344 342 341 340 340 341 341 340 340 340 343 344 345 347 349 351 351 351 352 353 355 355 355 356 356 356 357
321 322 324 324 325 325 323 322 324 322 319 318 316 320 324 317 313 318 319 312 315 337 352 344 345 351 347 341 340 342 342 340 342 342 342 344 345 344 344 341 341 342 341 342 343 343 343 343 345 347 349 351 351 352 352 353 354 355 355 356 356 356 357
317 319 320 319 320 322 322 323 324 322 323 320 320 327 325 317 314 318 316 311 319 345 357 345 341 346 346 343 340 339 341 341 341 341 343 345 345 345 346 344 343 343 343 345 347 347 345 342 345 347 348 350 351 351 352 353 354 355 356 356 356 357 357
315 315 317 320 321 320 320 325 323 323 326 321 317 318 315 315 319 318 315 316 329 349 349 337 340 345 345 349 345 339 340 340 341 342 343 345 346 346 346 346 345 345 346 347 349 349 345 342 344 347 348 351 351 351 352 352 354 355 356 357 357 357 357
320 318 322 331 332 320 315 320 321 322 325 322 321 316 312 320 322 316 324 333 329 331 339 339 341 340 337 342 344 342 344 342 341 344 345 346 346 345 345 346 346 346 348 349 349 349 346 343 344 347 348 350 351 352 352 352 354 355 356 357 357 357 358
326 324 325 329 327 319 316 319 319 321 324 322 320 314 316 328 321 310 331 348 325 325 350 352 343 342 336 334 336 340 344 344 342 343 345 348 347 345 346 345 347 349 350 348 349 350 347 344 344 347 348 350 351 352 352 353 354 355 356 357 357 358 358
324 325 325 325 324 322 321 321 319 320 323 320 317 317 322 330 319 311 332 345 326 329 350 346 344 347 338 335 340 342 341 342 343 341 343 345 345 346 347 347 348 349 349 349 350 350 349 346 345 347 348 350 351 351 352 353 353 355 357 357 358 358 358
323 323 326 325 323 321 320 321 322 321 323 321 319 320 324 326 321 320 335 342 332 331 336 334 338 343 336 336 345 347 341 342 347 346 343 342 342 344 346 347 348 348 349 349 349 350 352 350 347 347 348 350 351 352 352 353 354 355 356 357 358 358 358
325 323 326 325 323 322 319 320 324 322 321 322 319 321 323 323 322 323 331 335 335 335 338 336 334 336 337 340 349 354 350 348 351 350 345 340 340 343 345 346 347 347 348 350 349 350 352 351 348 348 349 350 351 352 352 353 354 355 356 357 358 358 358
326 323 324 325 324 324 318 316 321 322 319 320 320 320 323 322 321 322 323 323 329 336 338 337 336 337 340 345 353 360 362 359 357 357 353 347 342 342 345 347 348 347 347 349 351 350 350 348 347 348 350 351 351 352 352 353 354 355 356 357 357 358 358
327 323 322 324 325 323 318 317 320 322 321 321 321 322 326 325 323 322 319 319 327 333 332 332 334 335 337 341 345 352 362 366 362 359 355 350 346 345 345 346 347 347 346 347 349 350 348 346 346 348 350 351 351 352 352 352 354 355 356 357 357 358 358
325 322 322 326 326 321 320 323 325 324 325 324 321 321 324 324 323 324 322 324 327 328 329 331 330 330 335 341 346 348 350 354 361 364 358 351 347 345 345 347 347 346 346 346 347 347 346 346 346 348 350 351 351 352 352 353 353 355 356 357 357 358 358
324 324 325 330 332 328 328 333 332 324 322 326 326 327 330 329 326 325 325 330 331 330 332 334 332 339 350 355 360 360 353 352 358 361 360 358 354 349 346 347 348 349 349 350 349 347 345 346 347 347 349 351 351 352 353 353 353 355 356 357 357 358 358
325 328 329 332 335 334 332 336 338 333 331 328 324 329 342 350 346 336 329 336 345 343 341 340 340 350 358 358 360 361 358 358 357 354 353 355 354 354 352 350 351 353 349 347 347 346 345 346 348 348 348 350 351 352 353 353 353 354 355 356 357 358 358
324 328 332 334 331 329 332 338 340 338 338 336 329 328 342 363 362 349 338 345 362 363 352 345 343 345 351 358 363 358 354 355 355 354 353 348 345 349 353 350 347 345 343 342 343 344 346 347 348 349 349 349 351 352 352 353 353 353 354 355 356 357 358
329 330 335 337 330 329 336 339 338 337 336 337 337 332 341 364 364 353 353 357 366 365 351 343 343 342 347 361 372 363 352 351 352 353 354 351 349 354 357 356 353 345 341 342 343 343 346 347 348 349 350 350 351 352 352 353 353 353 353 354 355 356 357
332 335 339 339 332 335 342 338 336 336 334 339 339 328 336 361 363 357 361 362 359 356 345 340 344 341 346 374 381 363 351 349 350 350 352 353 353 354 354 358 361 354 346 344 345 345 345 346 347 349 350 351 352 352 352 353 353 353 353 353 354 355 356
336 338 340 339 336 341 343 337 336 337 336 339 334 324 336 360 361 357 363 362 360 362 357 355 359 356 359 379 376 355 346 348 348 347 348 350 351 352 349 349 352 350 349 350 351 349 346 346 347 348 349 351 352 352 353 353 353 353 353 353 354 354 355
343 341 340 339 339 342 341 336 335 338 338 334 327 328 344 359 359 358 361 360 360 363 366 370 371 362 357 359 354 345 345 348 346 344 346 346 347 349 348 347 349 348 349 353 353 349 347 348 350 349 350 351 351 352 354 353 353 354 354 353 354 354 354
344 343 342 341 340 339 337 335 335 338 339 336 332 336 346 352 355 357 357 354 354 355 357 358 355 349 346 346 345 345 345 345 345 344 344 345 346 347 346 347 347 347 348 351 352 353 354 353 353 353 353 352 351 351 353 353 354 354 354 354 354 354 354
341 341 341 342 343 340 336 336 338 339 341 340 334 334 343 351 353 353 352 352 351 349 349 348 346 346 346 344 344 345 344 343 344 344 344 346 347 346 346 346 346 347 350 350 350 353 357 358 357 357 356 355 354 352 352 353 354 354 354 355 354 353 354
342 342 340 340 343 341 337 337 339 337 336 335 331 333 345 353 352 349 349 350 348 346 347 347 345 345 346 344 345 345 344 343 343 343 344 345 345 345 345 345 344 344 347 348 348 349 354 357 359 359 358 358 357 356 356 355 354 355 355 354 354 354 353
342 342 342 341 342 341 338 337 337 334 332 330 327 329 338 346 347 348 349 348 346 345 344 344 345 345 345 344 343 342 342 341 341 342 343 344 345 346 345 344 343 343 344 345 345 346 350 353 355 357 359 359 358 358 359 358 357 358 357 355 354 353 353
341 341 341 341 340 338 336 336 335 333 331 330 328 327 330 334 337 340 342 341 341 341 339 339 340 340 339 339 338 338 339 339 339 341 342 342 344 346 345 344 343 342 342 344 344 345 347 349 350 353 355 356 357 358 359 360 360 359 359 358 356 353 352
340 340 339 339 338 336 335 334 334 334 332 330 329 329 328 329 328 330 332 333 332 332 332 333 333 333 334 335 335 335 336 337 337 339 341 342 344 346 346 344 342 341 343 345 345 345 345 346 347 350 352 353 354 356 358 360 361 362 361 360 357 354 352
339 339 337 337 337 335 334 334 335 335 333 331 329 327 327 327 326 325 326 327 327 328 329 330 330 331 331 333 334 334 335 336 337 338 340 342 344 345 345 343 341 341 343 344 345 345 345 345 346 347 349 352 352 354 356 358 362 364 363 361 360 356 353
337 338 336 337 339 338 335 334 334 335 334 331 329 326 325 324 324 324 323 324 324 326 327 328 329 330 330 331 332 333 334 335 336 337 339 341 342 343 344 343 341 341 342 343 344 344 344 345 345 345 346 348 350 352 354 357 361 363 362 361 360 358 356
336 338 337 337 341 342 337 334 333 334 333 331 329 328 326 324 323 323 323 324 324 325 325 327 327 328 329 329 330 331 333 334 336 336 338 339 340 341 343 343 343 342 342 342 343 343 344 345 345 345 346 346 348 349 351 354 356 357 357 357 356 355 356
335 336 336 336 340 340 337 333 334 334 333 331 329 328 327 325 324 323 323 325 326 326 326 326 326 327 328 327 328 330 330 332 333 334 335 337 339 339 341 343 344 343 343 343 343 343 343 344 344 345 345 345 345 346 347 349 351 352 352 353 352 353 354
333 334 334 335 338 338 334 332 333 334 334 332 330 329 329 328 326 325 324 325 325 326 326 327 326 326 327 327 327 328 329 330 332 332 332 334 336 337 339 341 342 343 343 343 343 342 343 344 344 344 344 343 343 342 343 344 345 345 345 345 345 346 346
331 331 331 332 335 335 333 331 332 332 333 332 330 330 329 327 326 325 325 325 325 325 325 327 326 325 326 326 326 326 327 328 329 329 330 331 332 335 337 338 340 341 341 342 342 342 342 343 344 343 343 343 342 341 340 341 341 341 341 340 340 339 339

ECMWFFLT2_925_thetae_033.txt.gz
Theta_e
323 323 322 323 322 320 321 319 317 319 322 318 313 313 317 314 312 314 314 314 317 320 324 329 330 330 331 332 335 337 340 342 344 346 348 348 348 349 349 350 351 351 352 353 354 353 352 353 352 352 353 354 354 355 355 355 355 356 356 355 355 355 356
322 323 323 323 322 322 320 317 318 322 323 321 317 315 316 314 312 314 314 312 313 313 317 328 334 331 331 331 332 334 337 340 341 343 345 347 347 348 349 350 351 351 351 351 353 352 351 352 352 352 353 353 353 354 355 355 356 356 356 355 355 355 356
321 322 323 321 321 323 321 320 323 322 317 318 320 317 315 314 313 314 314 313 313 311 314 324 332 333 334 333 334 335 335 338 339 339 342 345 346 347 348 349 349 350 349 350 351 351 351 351 351 352 352 352 352 353 354 355 355 355 355 355 355 355 355
321 322 321 318 318 320 320 320 322 322 318 318 320 318 315 314 314 314 314 313 312 315 319 323 328 335 336 336 337 337 335 336 338 338 339 342 343 345 347 346 348 348 347 349 350 350 349 350 350 351 351 351 352 352 353 354 355 355 355 355 355 355 355
318 319 320 320 320 319 318 317 317 318 318 318 319 317 314 314 314 314 315 312 311 319 328 325 326 334 337 339 340 339 338 336 337 339 338 340 342 343 345 345 345 347 346 347 349 349 349 349 349 350 350 351 351 351 353 353 354 355 355 355 355 355 355
314 317 322 324 324 323 321 318 317 317 317 316 316 316 315 313 313 314 314 312 312 321 332 330 327 330 333 337 339 338 338 337 337 339 339 341 342 341 342 343 343 345 345 347 348 348 349 348 349 349 348 350 350 350 351 352 353 354 354 355 355 355 355
316 318 321 321 321 324 324 322 322 321 319 316 313 314 315 313 313 315 314 313 316 326 338 334 331 333 331 335 339 338 338 337 338 340 338 340 343 341 339 338 339 342 344 347 348 349 349 349 348 348 348 349 349 350 351 351 352 353 353 354 355 355 355
319 319 321 320 320 321 321 322 323 321 320 319 317 319 320 315 313 314 315 314 316 328 344 340 334 336 332 332 336 337 338 338 338 339 340 342 345 345 341 337 338 340 342 346 349 351 352 350 349 348 348 349 349 350 350 350 351 352 352 353 354 355 355
318 318 319 318 317 318 319 321 323 322 323 321 319 324 324 317 313 314 314 313 315 329 345 340 333 335 332 331 333 333 336 339 338 339 341 344 347 349 346 343 342 340 341 348 351 352 352 351 350 350 349 349 349 349 350 350 350 352 352 353 354 354 354
318 319 320 317 317 319 320 321 322 321 322 321 319 320 318 316 317 316 314 313 318 329 340 337 333 334 335 337 335 332 333 335 337 342 343 345 349 352 351 348 346 345 346 349 351 353 352 350 350 350 349 349 348 349 350 349 350 351 351 352 353 354 354
323 323 324 322 321 321 320 320 322 322 321 321 319 317 315 319 320 317 316 320 319 322 332 339 338 337 339 344 340 336 339 338 337 342 345 344 347 349 349 349 349 351 353 351 351 352 351 349 349 349 349 349 348 350 350 349 350 351 351 352 353 354 354
321 321 322 321 321 321 321 321 323 323 323 323 318 315 320 326 319 312 322 331 322 320 329 337 342 346 345 344 342 341 345 343 337 340 344 342 343 345 347 349 352 355 355 352 352 351 349 348 349 349 349 349 349 350 350 349 350 351 352 353 354 354 354
318 318 319 320 320 322 322 321 322 323 324 324 319 318 323 327 318 314 329 340 328 323 327 329 337 346 341 339 343 340 339 337 336 342 347 344 340 342 346 349 353 354 354 354 354 352 348 348 348 348 348 349 349 350 350 350 350 350 352 354 354 354 354
318 317 318 320 320 320 320 320 321 321 322 324 322 323 324 324 321 320 330 340 333 327 327 325 329 340 339 340 341 335 332 335 339 344 346 342 338 340 344 350 352 351 353 354 354 354 351 349 348 348 348 348 349 349 350 350 350 350 353 354 353 353 355
318 317 318 319 319 319 319 319 321 321 322 323 322 323 323 323 323 322 324 331 332 331 330 330 334 339 338 337 336 334 335 338 339 341 343 344 345 344 345 348 348 348 351 352 353 354 353 350 348 347 347 348 348 348 348 350 351 350 352 353 353 353 355
318 317 318 318 318 319 318 318 320 321 321 322 322 324 325 323 323 323 320 321 326 330 330 331 334 335 333 334 336 338 340 339 338 342 347 354 359 354 347 346 346 345 346 349 351 350 348 348 347 346 346 347 347 347 348 348 350 350 351 352 353 353 356
318 317 317 317 317 318 318 317 321 324 324 323 322 323 325 325 324 323 320 320 325 333 333 331 331 331 332 335 338 339 341 344 344 344 345 349 354 352 347 344 343 341 341 343 347 348 346 346 346 345 344 346 346 347 348 348 349 350 351 352 353 353 355
317 316 316 318 318 319 319 319 325 331 332 330 327 325 325 324 324 323 324 326 330 333 332 331 332 331 332 337 342 341 341 343 345 344 346 350 351 348 344 341 340 340 340 341 343 346 347 346 344 343 343 345 346 346 348 349 350 350 351 353 354 355 356
315 316 318 319 321 321 319 323 330 334 334 335 335 333 330 328 327 326 323 324 330 334 335 334 333 333 338 348 353 349 345 346 348 348 351 356 356 353 351 349 347 346 344 343 341 343 345 344 343 344 344 344 344 346 347 349 349 349 352 353 354 355 356
314 316 318 321 322 319 318 326 334 335 335 338 337 334 333 336 338 337 333 329 328 331 331 330 333 338 344 350 354 353 351 351 352 352 353 355 354 353 353 353 352 351 348 345 343 343 343 343 343 344 344 343 344 344 346 348 350 351 352 353 354 356 357
315 316 316 319 320 317 320 331 336 335 336 338 338 336 338 340 339 340 342 342 338 335 332 327 330 337 339 340 347 350 350 350 350 350 351 351 351 352 352 352 353 354 353 351 346 343 342 343 342 343 344 344 344 345 345 348 350 351 352 355 356 356 357
314 314 315 318 318 318 326 335 335 333 334 336 337 337 338 340 338 336 339 342 342 345 345 335 329 334 335 332 337 347 349 349 349 348 348 348 349 349 350 351 353 355 356 356 351 345 342 343 343 343 345 344 345 347 348 348 350 351 353 356 356 356 357
315 313 313 316 317 321 331 336 334 333 333 335 336 333 334 338 337 335 337 341 342 345 349 344 335 332 330 326 332 347 350 348 348 347 348 349 348 349 351 352 353 355 357 357 353 346 343 344 345 345 345 345 347 350 350 349 349 353 355 355 355 355 356
316 316 314 315 316 320 329 333 333 334 334 336 334 329 331 337 336 334 337 341 341 344 348 346 340 333 332 335 344 350 348 346 346 346 348 349 348 350 352 353 354 355 357 357 354 349 348 350 348 346 346 348 349 351 352 349 350 354 354 353 354 355 355
315 316 316 315 315 319 326 331 334 334 334 335 333 330 333 336 334 334 337 338 341 344 346 346 343 341 344 347 348 347 345 345 345 344 345 347 349 350 352 352 354 356 356 357 356 355 355 353 350 347 348 350 353 354 354 353 352 354 354 352 353 354 354
314 315 316 316 317 321 328 332 334 333 331 332 334 333 334 334 334 335 336 337 339 341 344 346 344 344 345 344 345 346 344 344 345 344 344 346 349 350 351 351 353 354 355 355 355 354 354 352 351 350 350 353 356 356 356 356 355 353 352 352 352 353 354
314 315 316 318 321 326 331 331 332 333 332 332 335 335 334 333 334 335 335 336 337 336 340 344 343 343 345 344 343 344 343 344 345 344 344 346 346 347 348 349 352 354 354 353 352 352 352 351 352 352 353 355 357 358 359 358 356 355 352 350 352 353 354
315 315 317 321 326 331 333 332 332 334 334 333 333 333 333 334 333 332 332 335 335 333 338 344 344 343 344 342 342 343 343 344 344 344 344 345 344 344 345 347 350 352 352 351 350 349 350 351 351 353 356 358 358 359 358 354 352 355 354 351 351 353 354
318 318 320 324 326 327 330 334 336 334 332 331 331 331 331 331 330 328 329 332 333 334 337 341 342 341 340 340 342 342 342 342 343 343 343 343 343 344 344 345 347 349 350 350 349 349 349 350 350 351 355 357 358 358 356 353 352 354 354 352 353 354 355
318 319 321 322 323 325 329 333 334 332 330 329 328 329 329 329 327 326 327 328 330 333 336 338 339 339 338 339 340 341 341 341 342 342 343 343 343 344 344 345 346 347 347 348 348 348 348 348 349 349 351 352 353 353 353 355 357 358 356 355 356 357 357
317 319 323 324 325 327 329 332 332 331 330 328 327 328 328 327 326 326 327 328 329 332 334 336 337 337 337 338 339 340 341 341 342 342 343 343 343 344 344 345 346 346 347 347 347 347 347 346 347 348 348 349 350 351 353 355 358 360 361 359 358 358 359
317 318 320 321 321 321 324 328 331 331 329 329 328 328 327 327 327 327 328 328 328 330 331 333 335 336 335 336 338 339 340 341 342 342 342 342 343 345 345 345 346 346 347 346 346 347 346 345 345 346 347 348 349 351 352 354 357 361 363 361 361 361 360
316 316 317 319 321 322 324 326 330 330 329 330 330 328 327 327 326 327 328 328 328 328 328 329 333 335 333 333 335 337 338 339 341 341 341 342 343 344 345 346 346 346 347 346 346 346 345 345 345 346 346 347 348 349 351 353 355 358 359 360 362 361 360
316 317 319 322 326 328 326 325 328 330 330 331 332 331 329 327 326 326 328 328 327 327 326 326 329 331 331 331 332 334 336 336 338 339 340 340 342 342 343 344 344 345 346 346 346 346 345 345 345 345 346 346 346 346 347 349 352 354 355 356 356 355 354
316 316 317 320 322 323 322 322 325 328 330 332 333 331 328 326 325 326 327 328 328 327 326 326 326 328 328 329 330 332 333 333 335 337 338 338 339 340 341 342 342 343 343 344 344 345 345 345 345 346 346 345 344 343 344 345 346 348 350 351 350 350 350
314 314 315 317 319 320 321 322 324 326 328 331 331 328 325 325 326 326 326 327 327 327 327 327 327 327 327 327 328 330 331 331 333 335 336 337 337 338 340 341 341 341 341 342 342 343 344 345 345 345 345 345 343 343 343 343 343 344 346 347 346 346 346
314 314 314 316 318 319 320 321 323 326 327 329 329 327 325 325 325 325 326 326 326 327 327 327 327 327 327 327 327 329 330 331 332 334 335 336 337 338 339 340 340 340 341 341 341 342 342 343 343 344 345 345 344 344 344 344 343 343 343 344 344 344 343

ECMWFFLT2_925_thetae_039.txt.gz
Theta_e
328 328 327 328 324 320 323 321 316 319 325 321 312 311 313 311 311 312 311 312 316 321 325 330 332 331 332 332 332 333 336 339 338 340 347 343 339 342 346 352 358 359 360 363 364 364 363 364 364 364 363 363 365 367 369 371 372 371 369 368 366 364 364
326 326 326 326 326 325 322 316 317 324 325 323 317 313 313 313 312 312 311 311 313 313 318 327 331 331 330 331 331 332 334 337 335 336 342 345 341 341 345 352 360 360 359 362 364 364 364 364 364 365 365 365 365 367 369 372 372 372 370 368 366 364 364
324 328 325 322 324 328 325 320 324 322 315 314 314 313 313 313 313 312 310 311 312 311 315 325 330 330 331 331 331 331 332 334 333 333 336 342 343 343 345 349 356 360 360 361 365 364 363 364 365 366 365 365 366 368 368 370 371 371 370 368 366 365 365
324 326 323 317 318 324 326 326 327 323 317 314 314 314 313 311 312 312 311 310 310 315 322 327 330 332 331 331 332 333 332 331 334 335 335 339 343 342 342 345 353 359 359 358 364 364 363 364 366 365 365 365 366 367 368 369 370 370 370 368 366 366 366
322 320 322 320 319 320 320 319 319 318 319 318 317 315 312 312 311 311 312 310 310 319 328 331 333 334 331 332 332 332 332 332 333 335 337 339 343 343 342 345 349 356 359 358 362 363 362 363 365 365 366 366 365 366 367 368 369 369 369 368 367 367 366
316 318 325 326 324 324 322 319 318 318 318 315 314 313 313 312 310 311 312 310 311 323 332 332 331 333 332 331 331 332 332 332 333 337 337 341 346 345 344 347 350 355 359 358 360 363 362 362 365 364 365 366 364 365 366 366 367 367 367 368 368 369 367
320 325 327 326 325 326 325 323 323 325 321 315 310 311 312 312 311 311 311 310 315 327 334 331 331 332 331 332 332 331 332 331 334 336 335 340 345 345 347 345 347 352 357 358 360 364 363 361 363 364 364 365 365 364 365 364 365 366 365 366 368 368 368
324 326 328 327 327 326 323 322 324 325 323 320 318 317 317 314 311 310 311 310 316 328 333 330 330 331 328 331 331 332 332 331 334 334 336 341 345 348 348 346 348 349 353 359 361 363 366 364 363 365 364 364 364 364 364 363 362 363 363 363 366 369 369
318 319 321 321 323 323 322 323 325 325 326 326 324 322 321 316 312 312 311 309 315 328 334 330 329 329 328 329 330 330 333 333 332 334 339 345 349 351 350 348 348 349 355 365 366 367 370 366 362 364 364 364 362 362 363 362 362 362 361 362 363 367 369
314 314 315 315 318 320 322 324 326 326 326 325 322 318 315 314 315 315 311 309 318 332 336 331 331 331 330 330 329 330 331 333 337 341 343 346 351 355 351 349 349 353 360 367 370 370 370 365 361 363 363 364 361 362 361 361 361 361 361 361 361 365 367
317 318 321 325 324 319 317 320 324 324 326 327 323 316 312 314 316 314 315 318 320 328 335 333 330 330 331 331 332 331 332 335 339 341 342 345 352 355 353 351 352 355 360 363 367 368 365 362 361 362 361 362 361 361 361 361 361 360 361 361 362 364 366
326 330 330 330 328 321 318 319 321 323 327 326 322 315 316 320 315 311 321 326 320 323 333 334 330 331 332 332 331 333 334 337 337 338 338 343 350 353 354 355 356 357 359 362 365 365 361 358 359 360 360 361 360 360 360 359 360 360 360 361 361 364 365
329 333 330 328 329 326 325 323 321 323 325 323 320 318 323 325 316 313 324 330 324 328 333 331 332 334 332 332 332 332 335 336 335 336 336 337 341 346 350 355 358 360 360 361 363 362 360 358 357 358 358 358 360 359 359 360 359 358 359 360 362 363 364
327 331 330 330 328 326 326 326 324 325 325 323 323 323 326 326 322 323 331 331 329 332 333 331 333 333 331 332 333 331 333 335 333 334 334 332 334 339 347 353 357 361 362 363 364 365 364 361 358 359 358 357 358 358 358 359 359 358 359 360 361 363 365
324 327 329 328 327 326 324 324 326 326 325 325 324 324 327 326 324 327 331 328 330 332 333 333 335 335 334 333 332 332 333 333 334 333 332 331 333 336 340 345 354 359 362 365 367 367 366 364 361 359 358 357 356 356 357 357 357 357 357 359 362 362 364
321 323 325 325 325 326 321 320 325 326 323 323 323 325 327 325 323 325 323 322 328 334 333 333 334 335 334 334 333 334 333 332 332 332 332 333 334 335 336 337 343 349 353 361 368 366 363 363 361 358 357 358 356 355 355 356 356 356 356 358 361 362 363
320 322 323 323 322 322 318 320 325 327 326 326 326 326 329 328 327 325 320 322 331 336 335 333 333 333 333 334 334 333 333 334 334 334 333 334 333 334 336 338 338 336 340 351 357 357 356 359 359 357 355 356 356 355 355 354 354 355 355 356 359 362 364
318 320 322 321 319 318 320 325 328 327 327 327 326 325 329 329 329 327 327 330 334 334 333 332 332 333 332 333 334 333 334 335 334 334 335 335 335 336 337 334 334 337 339 345 350 349 348 351 354 356 355 354 354 355 354 354 355 355 355 356 358 362 363
318 319 320 319 317 319 324 327 328 328 327 327 328 328 328 328 328 328 330 331 332 332 333 333 334 334 333 333 332 332 332 334 334 335 336 336 336 337 336 336 344 352 353 353 353 352 348 345 347 351 353 353 354 354 354 354 354 356 356 357 358 360 364
320 319 318 319 320 323 325 329 329 330 329 328 326 324 326 328 328 328 329 329 329 330 330 331 332 333 332 331 333 334 333 333 334 332 333 335 334 334 335 341 353 363 363 357 357 357 354 349 345 345 349 352 352 354 353 353 354 355 356 358 358 360 363
321 319 316 319 321 323 325 329 331 331 330 330 326 322 325 329 328 329 331 330 331 331 331 332 332 333 336 337 336 332 330 328 332 332 330 329 332 336 341 348 356 361 361 360 360 359 356 352 347 343 344 348 351 352 352 353 354 355 356 358 358 359 363
319 318 316 319 319 319 322 327 332 332 330 331 332 326 326 331 331 331 334 335 335 335 334 334 337 341 341 338 333 334 337 337 342 348 343 337 342 349 352 354 356 357 361 366 366 363 361 358 354 350 347 345 349 351 352 353 354 355 356 358 359 360 362
318 317 317 318 317 319 326 331 332 332 330 334 334 326 324 333 337 336 335 335 337 337 339 342 345 343 336 329 333 346 350 348 352 355 354 352 352 354 353 354 360 363 365 368 366 364 362 359 359 357 352 350 350 351 352 353 354 355 356 358 360 360 362
318 317 317 317 317 323 331 331 330 329 329 332 328 320 323 337 342 339 339 338 340 344 348 349 346 340 333 334 343 350 350 348 353 354 355 353 353 354 355 358 363 364 364 367 368 365 364 365 364 360 357 353 352 353 354 352 353 355 356 357 360 361 361
317 317 316 316 318 324 330 330 330 329 328 329 325 322 332 343 341 339 341 341 342 346 348 348 347 343 342 344 347 347 347 350 352 352 353 353 354 356 358 362 363 361 361 367 368 364 366 368 364 361 358 355 355 356 355 354 354 354 355 357 359 361 362
315 316 316 315 318 324 327 327 327 326 325 327 329 333 339 341 337 339 339 339 343 346 346 347 346 345 344 344 346 346 348 350 350 349 351 354 355 355 358 361 361 359 363 367 367 364 364 364 362 360 359 356 357 357 356 356 355 352 355 358 360 362 366
314 315 316 316 319 325 327 325 326 330 331 332 335 336 337 336 336 339 339 341 345 346 345 346 346 345 346 346 346 347 348 348 348 349 352 354 355 355 357 359 357 359 363 366 366 365 365 365 366 366 360 358 359 358 356 357 357 353 356 359 360 363 367
315 314 316 319 323 325 325 325 329 332 333 334 335 336 335 335 336 338 339 342 345 345 345 346 345 346 348 347 347 348 348 347 348 349 352 353 353 353 356 358 356 358 362 365 365 364 363 364 368 370 367 361 360 361 362 362 359 356 356 358 361 365 368
319 318 319 322 324 323 323 325 327 328 328 331 334 335 335 336 338 339 340 342 343 342 343 343 344 346 347 347 346 346 346 346 347 348 350 351 352 353 356 357 356 356 360 362 360 361 362 363 365 370 371 366 363 367 370 369 365 361 359 362 366 368 369
320 320 320 321 323 322 322 323 324 324 324 326 331 334 335 336 336 336 338 340 341 341 341 342 344 345 344 344 345 344 345 346 347 348 349 350 352 353 354 354 355 356 357 358 357 358 360 360 363 366 369 368 369 369 369 368 368 367 366 366 369 371 370
318 319 320 320 321 321 320 320 321 323 323 324 328 332 333 333 334 335 337 339 339 340 340 342 343 343 343 343 344 345 347 348 347 348 350 350 351 352 353 354 354 356 356 357 357 358 359 360 361 362 363 365 365 365 365 365 366 368 369 368 368 369 368
318 318 319 318 319 318 318 319 320 321 321 324 328 329 330 331 332 334 335 336 339 340 340 341 341 342 342 341 342 345 346 347 348 348 349 350 351 352 352 353 354 355 357 357 358 358 358 358 358 359 359 360 361 363 365 366 367 369 368 367 368 368 366
316 316 317 317 317 317 317 317 319 321 323 325 326 326 326 328 330 332 333 335 337 339 340 340 340 341 342 341 342 343 343 344 345 346 347 349 350 350 351 352 353 354 355 356 356 356 356 355 356 357 357 357 359 361 364 365 368 368 368 368 369 367 366
314 315 316 317 317 317 317 318 320 322 323 323 323 324 325 327 328 329 331 333 336 338 339 338 339 341 342 341 341 341 342 343 343 344 346 348 349 350 350 350 351 352 354 354 354 354 354 354 354 355 355 355 356 357 361 364 367 367 367 367 367 366 366
314 315 316 316 317 317 318 318 319 320 320 320 322 323 324 325 326 328 330 334 336 338 339 339 338 340 340 340 341 341 341 342 343 344 346 347 348 349 349 349 350 351 352 352 353 353 353 353 352 352 353 354 353 354 355 360 363 364 365 365 365 364 365
314 314 315 316 316 316 317 317 318 318 318 319 320 321 322 323 324 325 329 333 334 336 339 339 339 340 340 340 341 342 341 341 344 345 345 347 347 347 348 349 349 349 350 351 351 351 352 352 352 352 351 351 351 352 352 354 358 360 362 362 362 362 362
314 314 315 315 315 315 316 316 316 317 318 318 319 320 321 322 322 324 327 332 334 335 337 339 340 340 340 340 341 342 341 342 344 345 345 346 346 347 348 348 348 349 349 350 350 350 351 350 351 351 351 350 350 350 350 352 354 355 356 358 358 358 359

ECMWFFLT2_925_thetae_042.txt.gz
Theta_e
331 329 327 331 326 321 323 320 315 317 324 322 312 310 312 311 310 311 310 311 316 321 325 329 331 331 332 332 334 334 339 347 348 349 347 342 344 350 351 353 353 356 360 360 356 356 358 361 362 363 363 363 365 365 367 367 366 365 364 363 364 364 362
330 329 328 330 328 326 321 315 317 323 326 323 317 312 312 312 310 311 310 309 312 312 317 326 330 330 332 333 333 334 336 342 345 346 348 346 345 345 350 354 355 355 361 361 358 357 358 359 362 364 363 363 365 365 368 368 368 368 365 364 365 364 362
329 331 328 326 328 329 325 321 324 322 315 314 316 313 312 312 313 312 310 310 311 310 314 323 327 330 331 332 333 333 333 336 339 342 348 348 346 346 349 353 354 353 355 357 359 357 357 360 363 364 364 364 365 366 369 370 369 369 367 366 366 365 364
327 329 326 320 321 326 327 327 327 325 317 315 315 314 312 312 313 314 313 311 311 315 323 326 330 333 333 332 335 335 333 334 336 340 346 349 348 348 347 349 353 350 348 354 359 356 354 359 364 364 362 363 364 366 370 371 370 370 368 368 367 367 367
324 322 325 322 322 323 322 320 319 319 320 319 318 316 313 312 313 313 314 312 311 320 331 333 333 336 333 332 336 336 333 332 335 341 347 349 349 346 345 347 348 348 348 351 355 355 356 357 363 364 363 364 363 366 370 371 371 370 370 369 368 367 367
317 320 328 329 328 327 323 320 318 318 318 315 313 313 313 312 312 311 313 311 312 323 335 334 333 336 334 332 334 334 334 332 334 340 346 349 348 344 345 347 348 349 350 351 352 353 355 356 361 364 363 364 362 366 370 371 371 371 370 369 368 367 367
321 327 330 329 328 330 327 324 325 326 321 315 310 310 312 311 311 312 311 310 315 330 336 334 333 336 332 333 334 332 332 332 335 335 339 347 348 345 344 344 345 348 349 349 350 351 352 355 361 365 364 363 364 365 367 369 371 372 369 370 368 366 366
327 327 329 329 330 330 326 324 326 327 323 320 317 316 316 313 310 310 311 309 316 330 338 335 334 335 332 332 333 333 333 333 335 335 339 349 352 348 347 347 349 353 353 355 357 355 357 359 364 366 365 365 364 364 366 368 370 371 371 370 368 366 366
323 320 320 323 325 326 325 325 326 327 326 326 323 321 320 315 311 311 311 309 314 329 339 335 332 333 332 332 332 332 334 333 334 337 345 354 357 353 350 355 359 358 361 365 366 366 366 366 366 367 365 366 365 364 366 367 369 370 370 369 368 367 367
317 314 314 316 319 323 324 325 326 325 327 326 321 317 314 313 314 315 312 310 317 332 338 333 331 330 332 333 332 332 336 338 343 352 355 358 359 357 357 359 358 360 365 367 368 373 373 367 365 366 367 366 365 365 366 365 367 369 369 368 368 368 368
318 318 320 324 325 321 318 321 323 325 326 326 324 316 311 315 317 314 316 319 319 325 334 333 330 330 331 332 331 335 344 346 348 357 361 359 361 361 360 361 361 363 369 371 372 375 373 365 364 367 366 366 365 366 366 365 366 367 368 367 366 367 369
326 331 332 333 330 323 318 320 320 323 326 326 322 314 316 324 317 311 326 337 323 322 335 336 332 335 335 334 333 338 345 342 344 354 358 352 354 357 359 367 371 369 373 380 379 376 372 365 364 365 365 366 365 366 366 365 365 365 365 366 366 367 369
329 335 333 334 332 329 325 324 321 323 324 323 320 318 322 328 319 315 333 340 327 329 335 332 333 337 335 334 335 337 341 339 343 351 350 345 348 352 356 369 372 366 373 386 385 378 373 367 365 365 364 365 367 365 365 365 364 364 365 364 365 365 368
327 331 332 333 332 329 329 327 324 326 326 323 322 324 326 329 325 326 335 336 331 332 333 330 331 335 333 334 337 336 338 341 343 345 343 342 344 344 350 362 366 365 374 383 384 383 378 371 366 364 363 365 366 366 364 365 364 364 364 364 363 364 366
322 328 330 331 331 330 326 326 326 326 325 324 324 325 327 327 326 329 333 332 333 335 335 333 335 338 336 336 338 339 339 339 339 337 337 340 340 342 347 354 360 366 372 378 383 384 381 375 369 364 363 365 364 363 364 364 365 362 362 364 363 363 365
320 325 329 328 329 328 323 323 325 323 322 323 323 325 327 326 325 326 324 324 330 335 335 334 335 338 337 336 337 338 337 338 336 333 334 337 341 347 353 358 362 364 365 368 375 375 371 369 367 363 364 362 361 362 362 361 363 362 362 364 364 363 364
321 325 327 326 325 323 319 321 326 326 326 326 325 327 329 328 328 326 321 324 334 340 338 335 334 335 336 337 335 335 340 344 338 333 334 335 336 341 351 357 361 359 358 363 368 366 362 362 360 359 360 361 359 361 361 360 361 360 360 362 363 365 364
320 323 326 325 322 318 321 327 331 331 330 329 327 327 329 329 329 329 328 334 341 340 337 336 336 336 337 340 337 335 340 345 340 335 336 336 334 338 342 342 347 354 362 366 364 360 357 358 358 356 357 358 360 358 357 359 359 360 360 360 363 366 366
321 321 322 321 319 321 327 330 331 331 330 331 331 329 329 329 329 329 332 337 339 339 337 336 338 339 338 337 337 335 336 338 339 336 337 338 339 339 341 346 357 367 369 365 359 356 353 352 355 359 358 357 357 358 357 357 357 359 361 359 361 367 367
321 320 320 320 322 326 329 332 332 330 331 331 329 328 329 330 329 330 333 334 337 338 335 334 337 338 335 335 337 335 334 335 334 334 336 338 336 334 344 361 370 372 365 358 355 357 355 348 347 355 356 357 356 356 357 356 356 358 361 359 361 365 368
321 318 318 320 322 323 325 330 331 330 331 332 328 324 328 332 332 332 334 335 334 333 334 334 335 334 335 335 335 333 333 333 332 339 347 349 345 343 350 360 365 367 366 362 360 360 359 353 348 346 348 351 354 354 355 356 357 356 359 360 360 363 367
322 319 319 321 319 318 322 326 331 331 329 331 332 327 326 330 331 330 332 334 333 332 332 332 335 335 335 336 337 339 342 347 349 351 355 355 352 353 357 360 364 368 369 367 364 361 360 357 354 352 349 348 352 354 354 354 355 356 356 360 361 362 366
320 320 320 321 317 319 326 329 330 329 329 333 333 324 322 333 336 331 331 332 333 337 339 338 340 341 338 340 346 348 349 353 354 353 356 356 354 356 362 363 363 362 364 364 364 364 362 361 358 357 353 350 350 356 358 354 354 357 356 358 361 361 364
319 319 320 320 321 325 331 330 330 330 331 333 329 321 326 342 345 338 337 336 337 344 348 346 344 344 341 345 351 350 349 352 353 352 354 355 355 357 360 361 359 357 359 364 366 366 367 368 366 363 360 357 355 359 360 356 353 356 357 358 360 361 362
318 318 318 320 326 330 331 330 332 332 330 329 326 325 335 346 344 340 342 343 343 347 349 348 347 346 345 347 349 348 349 351 350 349 351 354 357 355 355 359 360 357 358 364 367 364 366 368 367 364 362 362 362 362 360 360 357 356 356 357 358 361 362
317 319 317 318 327 331 328 328 333 332 330 332 332 336 341 342 341 343 344 345 347 348 348 348 347 346 345 346 349 349 349 349 349 350 352 355 357 354 353 357 361 356 358 366 367 366 367 366 368 369 367 365 365 364 364 366 361 355 356 358 359 361 363
317 318 316 320 331 334 329 330 336 335 336 337 339 340 340 339 341 342 343 344 346 346 346 346 345 346 348 349 349 348 349 349 349 350 352 353 354 354 354 358 358 355 358 364 366 365 366 365 366 369 373 374 368 363 363 364 359 356 359 361 361 362 363
316 317 318 324 330 330 326 330 334 333 334 337 338 338 339 339 339 340 342 344 343 343 344 344 344 346 347 347 347 348 348 348 348 350 352 352 353 352 354 358 357 355 358 363 364 363 364 364 365 367 374 377 369 363 367 366 359 358 361 363 364 366 365
320 320 322 324 326 325 323 326 328 327 328 331 333 336 338 337 337 338 340 341 341 341 342 342 343 345 344 344 345 345 346 347 348 348 349 351 352 353 353 355 355 355 357 360 360 359 361 364 365 368 373 373 367 368 373 372 365 362 362 363 368 369 367
320 320 321 322 323 323 322 322 323 324 324 326 329 332 334 334 334 336 337 338 339 340 341 342 343 343 343 343 344 343 345 347 348 349 350 352 353 352 353 354 354 354 356 358 357 359 361 363 364 365 369 369 369 370 371 370 370 369 364 364 367 369 369
319 319 321 321 322 322 321 320 322 323 323 325 328 330 330 330 331 333 334 336 337 339 340 341 342 342 343 344 343 344 345 346 347 349 350 351 352 353 354 354 355 356 357 357 357 359 360 361 361 361 363 364 366 367 367 366 369 371 370 369 369 370 371
319 319 321 320 320 321 319 319 320 321 324 326 326 326 326 328 329 330 331 333 336 338 340 341 341 341 342 342 343 344 345 346 347 347 348 350 352 352 353 354 354 356 357 357 358 359 358 358 358 359 360 361 363 365 367 368 370 371 371 370 371 371 370
318 318 319 319 319 319 318 319 319 321 324 324 324 324 325 326 327 328 329 330 333 336 339 340 341 341 342 342 343 343 344 345 346 345 347 349 351 351 352 352 353 355 356 356 357 357 356 356 357 358 358 358 360 362 365 366 370 371 370 368 369 370 368
316 317 318 319 318 318 318 319 319 321 321 322 322 323 323 324 326 326 326 328 330 333 336 339 340 342 343 342 342 342 343 344 345 345 346 348 349 350 351 351 352 353 355 355 355 355 355 355 356 356 356 356 357 359 362 366 369 370 370 370 369 368 367
316 316 317 318 318 318 318 318 319 319 320 320 320 322 322 323 324 325 325 326 327 330 333 337 339 341 343 342 342 343 343 343 344 345 346 347 349 350 350 350 352 352 353 353 354 354 353 354 354 354 354 354 354 356 360 364 366 366 368 369 368 369 369
315 315 316 317 317 317 317 317 318 318 318 319 320 320 321 322 322 322 323 325 326 327 331 335 338 341 342 342 342 343 343 343 344 347 347 348 349 349 349 350 350 350 351 352 353 353 353 353 353 353 353 353 353 354 355 358 361 364 365 365 366 367 367
315 315 316 317 316 317 317 317 318 318 318 318 319 319 320 320 321 322 322 323 324 325 329 333 337 340 341 341 342 343 344 343 344 346 347 347 347 348 349 350 350 350 351 351 351 352 352 352 352 352 351 351 351 351 352 354 356 359 361 362 362 364 364

ECMWFFLT2_925_thetae_045.txt.gz
Theta_e
328 328 327 329 327 321 323 321 316 320 326 322 314 314 315 313 315 317 314 313 320 324 328 331 333 334 332 334 336 337 344 348 347 347 351 352 352 351 352 353 354 356 355 353 352 353 357 357 357 356 357 359 360 361 361 360 360 360 359 360 360 358 357
327 328 328 329 329 327 321 316 318 325 328 323 317 315 316 316 315 315 313 312 315 315 319 328 331 331 332 334 333 334 341 345 346 349 350 351 352 351 352 355 355 355 355 355 354 353 355 357 356 356 356 358 360 361 361 361 360 361 360 359 360 359 358
327 329 328 325 328 331 325 321 325 325 317 315 316 314 315 317 316 314 313 312 313 312 317 324 327 328 330 334 335 332 338 344 346 350 351 351 350 349 352 354 354 354 353 354 354 353 355 356 356 356 357 358 360 361 362 362 361 361 360 360 359 359 359
327 328 326 320 321 328 329 326 327 325 318 317 317 314 314 317 317 316 315 313 313 319 326 325 326 329 329 336 340 336 338 344 346 348 349 349 349 349 351 353 353 353 352 352 353 353 354 355 355 356 357 359 360 361 363 363 362 362 361 361 360 359 359
324 322 324 323 322 324 324 321 320 319 320 320 319 317 314 316 318 318 319 316 317 329 336 329 329 330 330 334 340 339 340 344 346 348 347 348 350 349 350 352 352 352 352 351 351 352 353 353 355 356 357 360 361 361 363 363 363 363 362 362 361 360 359
317 320 328 329 328 327 325 322 319 317 318 316 315 316 315 313 314 317 320 319 323 337 339 333 331 330 331 334 337 339 341 342 345 348 346 347 350 350 350 350 351 351 353 352 351 351 352 353 356 357 358 360 362 362 363 363 363 363 363 362 361 361 361
321 325 330 330 328 329 329 327 325 324 321 315 312 315 316 313 312 315 315 315 327 349 344 336 334 331 331 335 336 339 338 337 343 348 346 346 348 349 350 348 349 351 352 352 352 351 353 354 357 359 360 361 362 363 363 364 364 364 363 363 362 361 361
326 329 328 331 332 330 327 326 327 326 322 319 319 322 323 316 312 314 313 312 329 356 349 336 336 334 332 335 337 340 339 336 344 348 346 345 347 350 350 349 350 351 352 353 353 353 354 355 357 358 360 361 362 363 364 364 365 364 364 363 362 362 362
321 324 325 324 327 328 326 327 328 326 326 325 323 325 326 319 313 314 314 313 327 355 356 341 337 336 334 333 334 337 336 337 344 348 347 346 348 350 351 351 352 352 353 356 356 356 354 354 357 357 358 360 360 360 363 365 366 366 365 365 364 363 362
321 321 322 319 321 325 326 328 327 326 327 324 321 320 318 319 320 317 315 316 326 343 350 341 338 339 336 335 339 343 348 352 352 347 348 348 347 349 351 351 351 351 354 358 359 358 355 354 357 358 358 359 359 359 361 364 367 367 367 366 365 364 363
328 326 330 332 327 322 320 324 324 326 327 325 324 318 316 325 327 319 322 328 324 328 338 338 337 339 341 343 349 355 363 369 362 349 348 350 346 347 350 351 351 352 355 358 360 359 355 353 355 357 359 360 360 361 361 362 367 369 368 368 367 365 364
333 331 334 336 330 322 320 322 323 324 326 326 322 316 322 336 327 317 333 342 326 326 337 340 340 342 344 347 351 354 359 364 361 352 349 349 348 350 352 352 353 355 355 357 359 357 354 354 354 356 358 360 361 362 363 363 365 368 369 369 368 367 365
330 332 332 333 332 328 325 324 324 324 324 323 320 319 329 339 328 326 347 349 332 334 338 340 345 345 343 344 347 349 353 356 357 353 348 349 352 355 355 354 355 356 357 358 357 356 354 352 354 356 358 361 363 363 363 364 364 366 370 370 369 368 367
329 331 333 334 332 330 328 326 326 327 325 324 322 324 333 337 332 341 358 349 339 340 337 338 344 341 339 343 344 347 350 353 355 353 349 353 357 357 357 359 359 358 360 361 359 360 358 354 355 359 361 362 364 364 364 364 364 365 368 369 370 369 367
330 331 332 333 331 330 327 327 329 328 326 325 323 324 330 334 331 337 350 345 340 338 338 342 344 342 342 342 341 345 349 351 352 351 349 354 360 360 358 358 361 364 367 366 364 365 365 360 359 362 364 364 365 364 365 364 364 365 367 368 369 369 368
330 332 332 331 330 328 325 324 329 330 325 323 323 323 327 332 331 333 336 335 335 338 342 343 341 341 342 343 343 343 345 347 349 349 350 354 358 361 362 361 367 376 379 374 371 369 365 363 363 363 364 366 365 365 365 365 365 365 365 367 368 368 368
328 330 331 330 327 326 324 325 329 333 331 327 324 325 329 334 334 334 335 338 344 345 342 339 341 341 340 343 347 347 347 348 347 346 348 352 356 361 366 367 368 373 378 380 377 372 366 364 364 363 364 365 365 366 365 365 365 365 364 365 367 367 367
326 324 327 329 327 325 329 333 334 335 334 331 326 324 326 330 334 339 345 353 352 345 341 340 342 343 343 345 346 349 351 348 347 346 345 350 356 359 363 368 368 367 373 379 374 368 366 367 365 364 364 363 364 365 365 365 365 365 365 364 365 366 366
324 325 328 329 327 329 333 335 336 334 333 332 332 332 330 330 334 336 341 349 348 343 344 345 343 343 345 344 345 349 352 352 352 354 353 354 358 361 367 378 379 374 376 378 372 363 361 362 363 363 362 362 363 364 363 364 364 363 364 364 364 365 365
327 332 333 329 328 334 335 335 335 333 334 335 335 337 343 344 343 344 339 340 343 341 339 340 341 339 339 344 351 354 357 358 357 357 361 364 364 367 373 379 380 377 373 372 369 362 357 356 356 357 358 358 359 361 361 362 362 362 363 362 362 364 364
327 330 329 328 331 337 337 335 336 334 335 336 335 338 343 346 344 347 345 338 337 338 338 338 339 337 341 353 360 358 356 359 358 358 362 364 364 365 365 365 369 369 364 363 361 357 356 357 354 354 356 356 356 358 359 359 359 360 361 362 362 363 364
323 324 328 329 329 334 334 331 333 333 333 334 335 342 345 345 343 348 350 346 341 337 337 338 338 343 354 362 363 357 353 354 356 357 359 359 361 361 359 359 360 359 361 363 360 356 355 356 356 356 356 354 354 356 356 357 358 357 359 360 361 363 365
320 325 334 333 329 334 336 333 332 334 336 335 335 346 347 344 342 347 350 350 350 347 343 343 345 352 360 364 361 355 353 353 354 358 358 357 356 355 358 359 357 356 362 363 361 363 364 363 365 364 362 360 357 355 355 356 356 356 357 358 359 362 365
320 325 333 333 333 335 334 331 333 336 336 334 341 349 348 344 341 346 348 347 349 350 351 352 353 357 361 362 357 352 350 352 354 356 358 357 355 354 357 359 355 356 362 363 362 367 368 366 367 368 368 369 366 362 359 357 356 355 355 356 357 359 362
318 327 332 331 332 334 329 328 333 336 337 343 350 349 347 342 342 345 345 345 346 347 350 353 354 355 355 353 352 349 350 352 353 354 354 354 353 354 357 357 354 354 361 365 365 365 365 365 363 362 366 372 372 370 366 362 360 358 356 355 355 357 360
318 332 339 335 335 334 327 327 333 336 343 350 349 346 342 338 342 344 342 343 345 344 347 349 349 349 347 347 348 348 348 351 352 352 354 354 354 354 356 356 355 354 359 364 364 362 363 363 360 360 365 371 374 373 370 367 364 360 359 358 354 355 359
318 329 334 336 339 335 325 327 335 340 346 346 342 341 339 337 340 341 340 342 343 343 345 346 345 346 346 345 347 347 348 350 351 352 354 355 355 355 354 355 354 354 358 360 360 360 361 362 362 363 367 371 373 373 372 370 365 360 362 362 356 355 358
324 330 333 336 339 333 325 329 334 336 341 342 338 337 337 335 336 338 339 341 341 342 344 345 344 345 345 345 346 347 348 349 349 351 353 353 354 353 353 354 354 353 355 358 358 358 360 362 363 364 367 371 372 372 372 370 367 363 364 366 363 358 359
327 332 334 335 333 327 325 331 332 330 332 334 333 333 333 332 334 336 336 338 340 342 343 344 344 344 344 344 344 345 346 347 348 349 351 351 352 353 353 354 355 355 356 356 357 359 360 360 360 360 363 367 368 368 369 369 369 366 364 367 369 365 362
324 327 329 328 326 323 323 328 330 329 329 328 328 331 332 332 331 331 332 335 338 340 342 344 345 344 344 344 345 345 346 347 347 348 350 349 350 352 354 354 354 356 357 357 358 359 358 357 357 358 359 361 364 366 367 368 370 368 366 369 372 369 366
322 324 324 323 322 323 324 325 327 329 330 328 327 329 332 332 329 328 330 332 334 337 341 343 344 344 345 345 346 347 347 349 349 350 350 350 349 350 352 353 352 354 356 357 358 358 356 356 357 357 357 358 360 361 364 368 370 369 370 371 372 371 369
320 322 323 321 321 324 324 323 324 325 328 328 326 326 329 330 328 326 327 329 330 333 337 341 342 343 344 346 347 347 348 351 353 352 351 350 348 348 350 351 351 353 356 357 357 357 356 356 356 356 355 356 357 358 362 366 369 370 370 371 372 373 371
317 319 320 319 320 322 322 321 321 321 322 324 325 325 325 327 328 327 326 326 328 329 332 336 341 343 344 347 348 347 348 351 353 352 351 348 346 348 350 350 352 354 355 355 356 355 355 355 354 354 354 353 354 355 359 364 367 369 369 369 370 372 371
318 318 318 317 318 320 319 318 319 319 320 322 323 325 325 326 329 329 326 324 326 328 329 332 339 343 344 346 348 348 348 350 352 351 349 346 346 348 350 350 351 353 353 354 354 354 354 354 353 353 353 353 353 353 356 360 363 366 369 370 370 370 369
318 317 317 317 318 318 318 317 317 319 321 321 322 324 326 325 327 328 327 326 326 328 328 329 335 342 345 344 346 347 347 347 347 347 347 347 347 349 349 349 350 351 351 352 353 353 353 353 352 352 351 351 351 351 352 356 360 365 368 369 368 368 369
316 316 316 317 317 317 317 317 317 318 320 321 321 322 323 324 324 324 326 327 327 328 329 328 331 339 344 343 343 346 348 346 345 345 346 347 347 348 349 350 350 350 351 352 352 352 352 352 352 351 350 349 349 349 351 354 358 363 366 366 366 366 366
315 315 316 316 316 316 316 317 317 317 319 321 322 321 323 325 326 325 327 329 329 329 330 330 330 334 340 341 341 344 346 345 344 345 346 346 347 348 350 350 350 351 351 351 351 351 352 351 351 350 349 348 348 349 350 352 355 359 363 364 364 364 365

ECMWFFLT2_925_thetae_048.txt.gz
Theta_e
326 327 327 325 326 324 325 323 318 322 329 324 317 319 322 318 316 318 317 319 324 325 329 334 330 333 336 336 342 347 347 348 349 350 352 350 351 352 353 354 354 353 352 351 350 352 352 352 352 353 353 354 354 354 354 354 353 354 354 354 355 355 355
326 327 327 325 327 329 324 319 320 325 327 324 320 319 320 316 314 320 318 316 319 317 322 338 334 329 334 334 339 347 348 348 349 351 351 350 350 352 352 353 354 353 353 351 351 351 352 352 353 354 354 354 355 355 354 355 354 354 354 355 355 355 355
326 325 326 324 326 328 326 322 326 326 319 316 318 317 318 316 314 318 317 315 318 317 323 335 331 326 332 331 335 346 349 348 350 350 351 352 351 351 353 353 353 353 353 352 350 351 352 353 353 353 354 354 356 355 355 355 355 354 354 354 355 355 355
325 326 324 319 320 325 326 324 326 327 321 317 317 316 318 319 318 318 317 315 318 323 331 333 328 329 332 326 331 344 351 351 351 351 351 352 352 352 353 352 354 354 352 351 351 351 353 353 353 353 355 355 356 356 356 356 356 355 355 355 356 355 355
322 322 322 321 321 322 323 319 319 321 320 320 320 317 318 323 324 321 317 316 320 328 332 330 329 329 328 327 329 340 351 351 349 351 350 351 352 351 352 352 352 353 352 351 350 352 353 353 354 354 355 355 356 357 357 357 357 357 356 356 356 356 356
321 321 324 327 326 324 324 320 318 318 319 317 316 316 317 318 324 326 324 319 323 333 331 327 328 328 327 328 325 334 350 352 349 351 349 351 351 350 351 352 352 353 352 352 350 350 353 353 355 355 355 356 356 358 358 357 358 358 357 357 357 357 357
323 324 325 326 326 328 327 324 324 323 321 316 312 315 316 311 316 326 323 317 325 346 347 331 328 328 327 328 325 334 347 350 349 349 349 351 351 350 352 350 350 353 351 351 350 350 352 353 354 355 355 356 357 358 359 358 359 358 358 358 357 357 357
326 326 327 326 326 328 326 325 327 323 322 319 317 323 325 315 312 316 316 314 322 351 363 340 331 329 325 327 327 333 344 348 347 348 347 351 351 349 351 350 350 352 351 352 353 351 352 352 354 355 355 355 357 358 359 359 360 359 358 359 358 358 357
329 322 324 325 324 326 324 325 327 323 325 325 323 328 326 317 314 314 316 316 322 350 369 346 335 333 327 326 327 333 344 345 345 348 348 350 351 350 351 351 351 352 352 353 354 353 351 351 353 355 354 355 356 356 359 359 360 360 359 359 359 358 358
332 324 327 327 323 324 324 327 327 325 326 322 321 324 318 315 319 317 315 317 324 346 359 340 332 331 326 328 330 333 342 344 345 349 348 350 351 350 352 352 352 353 352 355 355 353 351 351 352 354 353 355 355 356 358 359 360 361 360 360 359 359 358
328 327 330 329 326 325 324 323 324 326 325 322 325 323 317 321 326 319 318 321 321 333 346 337 336 336 330 333 337 338 341 344 346 348 348 350 349 349 350 350 352 355 354 354 354 352 351 351 352 353 354 354 355 357 358 359 360 361 360 361 360 359 359
320 321 321 320 323 326 325 323 323 325 326 323 321 318 322 331 326 316 326 333 321 329 347 344 344 352 350 350 353 349 342 343 347 347 348 350 349 347 350 350 351 354 355 355 355 352 350 350 352 353 354 354 355 356 359 359 360 361 361 362 361 361 360
316 316 317 318 321 327 329 328 323 323 325 323 319 319 328 337 325 318 331 338 327 333 348 344 344 355 357 358 364 357 346 343 347 347 347 348 348 348 348 350 351 353 353 355 354 353 351 350 352 353 355 356 355 357 359 360 361 361 361 361 362 361 361
314 315 319 322 327 329 328 328 327 326 328 324 321 323 330 336 334 334 341 342 337 339 344 344 345 347 347 351 359 356 349 347 347 346 346 346 346 347 348 348 350 351 353 355 354 355 353 350 351 353 354 356 357 358 359 359 361 362 362 362 363 362 361
315 317 322 326 331 332 327 327 328 326 325 326 324 324 330 332 331 343 349 343 341 341 340 342 343 344 345 347 353 356 351 346 347 346 345 344 346 348 348 348 349 350 353 354 355 356 354 351 351 353 354 355 357 357 358 359 360 363 364 364 363 363 363
316 318 320 323 329 331 327 327 332 327 323 325 322 321 335 333 328 337 341 334 336 339 338 339 340 339 342 343 346 352 352 348 348 347 346 346 347 347 348 350 350 351 352 354 356 355 352 351 351 352 354 355 356 357 357 358 358 361 364 365 365 365 364
318 317 318 322 328 332 331 330 332 332 329 330 328 332 346 346 340 339 336 334 343 344 335 336 339 338 341 344 344 346 349 352 353 349 348 349 349 349 351 351 350 350 350 353 354 353 352 352 352 352 353 355 356 356 357 358 359 360 363 366 366 366 366
316 316 320 327 329 331 333 332 332 334 338 345 348 346 347 349 348 346 344 342 343 339 336 344 352 353 354 357 358 356 353 355 357 358 357 356 355 355 354 354 354 354 355 354 352 350 351 351 352 352 354 355 356 357 358 360 360 360 362 365 366 367 367
316 323 331 338 339 337 336 332 330 332 336 343 348 349 348 347 348 351 355 348 338 341 353 358 358 362 360 359 364 365 361 361 363 365 366 367 368 368 366 367 369 370 370 366 358 352 352 352 353 353 354 355 357 358 359 361 361 362 362 363 366 367 367
321 327 331 336 343 344 337 331 330 331 333 337 346 352 349 345 347 349 353 353 343 346 358 361 358 360 359 357 360 361 361 362 361 361 362 363 364 366 368 372 375 374 371 365 360 356 355 355 356 356 357 359 359 359 360 362 363 363 362 362 364 365 367
324 322 324 333 343 345 340 334 331 330 331 333 341 351 350 345 345 347 349 355 357 352 355 357 357 358 359 361 361 357 356 358 356 358 358 356 358 360 361 365 367 365 363 361 358 359 360 361 361 359 359 361 362 363 362 362 362 363 362 363 363 364 365
321 318 325 340 347 347 342 333 327 327 330 331 335 347 351 345 342 345 347 353 360 359 355 355 356 358 364 364 362 358 355 354 353 356 356 355 356 357 357 360 362 363 363 363 362 362 363 364 365 363 361 359 359 361 362 362 364 363 363 363 363 362 364
315 315 327 340 343 340 336 329 325 326 330 332 335 346 351 346 341 343 346 347 351 353 354 355 357 361 364 364 361 357 354 353 353 355 356 356 355 354 355 358 361 362 363 363 361 362 361 361 363 365 364 363 361 360 360 359 360 360 362 363 362 363 362
315 318 329 338 337 333 330 326 325 326 330 335 340 349 352 346 340 340 344 346 347 348 350 353 355 359 361 360 357 354 351 352 352 354 355 355 355 355 355 356 358 359 360 359 360 361 361 361 363 364 364 365 367 367 365 362 359 358 359 360 361 363 363
315 319 328 335 334 330 327 326 325 327 335 343 347 350 351 345 340 339 341 344 345 346 348 350 351 352 353 352 351 350 350 352 353 352 353 352 353 354 355 355 355 356 357 358 359 360 361 363 364 365 366 367 370 371 369 367 365 363 360 358 358 360 360
318 324 330 335 335 329 325 326 327 330 340 348 347 345 344 340 336 336 339 342 343 343 345 346 346 346 346 346 348 348 348 350 351 351 352 353 353 353 354 355 355 354 355 357 359 359 360 361 362 364 367 368 370 370 368 368 369 367 363 361 359 357 357
326 331 332 333 333 329 325 328 331 335 341 343 340 339 339 336 331 331 336 339 341 342 343 343 344 343 344 345 346 346 346 347 348 348 350 352 353 352 353 354 355 354 355 356 357 357 357 358 360 360 363 365 367 366 366 367 368 367 364 364 362 358 355
329 332 332 331 332 330 328 329 333 335 335 335 335 336 335 332 329 328 331 334 337 341 342 342 343 343 344 344 345 346 346 346 346 347 348 350 351 351 351 352 354 354 355 356 356 356 356 356 358 357 358 361 362 361 363 366 368 368 366 364 364 363 358
327 328 329 328 329 329 328 329 331 331 329 329 331 333 334 332 330 327 327 328 331 335 340 342 343 343 343 344 344 345 346 346 346 346 346 346 347 348 349 350 352 353 355 356 355 355 355 355 357 356 356 357 357 358 361 364 367 368 368 367 368 368 361
325 325 323 321 322 324 326 327 328 327 326 327 329 331 331 331 329 328 326 326 327 328 334 339 343 343 343 343 344 345 347 347 347 347 347 346 345 346 347 349 351 353 354 355 354 355 355 355 355 354 354 354 355 356 359 364 366 367 368 370 371 370 366
322 322 320 317 318 321 321 323 323 322 324 326 327 329 331 329 327 327 327 327 325 324 326 332 339 342 342 343 344 346 347 349 348 348 350 349 345 344 347 349 351 353 353 353 354 354 354 354 354 353 353 353 353 354 357 361 364 365 367 369 370 372 368
319 321 319 316 317 318 319 321 322 322 323 325 323 324 328 329 326 326 327 328 328 326 323 326 332 338 341 342 343 345 347 349 348 350 351 350 347 345 347 348 351 353 352 352 352 353 353 354 353 352 352 352 351 352 355 358 361 365 366 368 370 372 369
317 319 318 315 316 318 317 319 321 321 322 324 322 321 324 326 326 326 326 326 328 328 326 325 329 335 340 342 343 344 346 346 347 350 349 347 345 346 347 348 349 351 351 352 352 352 353 352 352 351 352 351 350 350 352 355 359 362 365 367 369 371 371
316 317 316 316 317 318 316 316 317 317 318 320 321 321 322 322 324 326 326 324 325 326 327 326 326 332 339 342 342 344 345 345 346 348 345 342 343 345 348 349 348 349 351 351 352 351 352 352 352 351 350 350 349 349 350 354 357 361 365 368 368 369 372
314 313 313 315 315 315 314 314 315 315 316 317 319 320 322 322 323 326 328 326 325 325 326 325 324 330 338 342 342 343 345 343 343 344 344 343 343 345 348 349 349 350 351 351 351 351 352 351 350 350 349 348 347 347 349 352 355 360 364 366 367 368 370
311 311 312 312 312 312 312 312 313 313 315 317 317 318 321 324 326 327 329 328 326 327 327 325 323 326 334 338 340 344 345 342 341 343 345 344 344 347 349 350 349 350 351 350 351 351 350 350 350 349 348 347 346 347 349 350 353 358 363 365 365 367 368
310 310 310 310 310 311 311 311 312 312 313 315 317 319 321 324 326 328 328 327 327 327 326 325 322 322 327 334 338 341 342 341 342 344 344 343 345 348 349 349 350 350 350 350 350 350 350 349 349 348 348 347 347 349 350 349 351 357 362 363 364 367 368

ECMWFFLT2_925_thetae_051.txt.gz
Theta_e
327 331 330 328 328 327 328 328 324 326 330 325 321 322 323 317 317 321 318 320 325 326 329 331 332 337 340 339 341 343 345 347 347 348 348 345 347 347 348 351 351 350 349 347 347 348 348 349 349 349 349 350 351 351 351 352 352 352 353 353 354 353 354
326 326 331 328 327 330 327 324 325 328 328 327 323 320 319 316 317 321 321 317 315 316 326 336 333 333 337 339 341 340 342 346 347 348 348 347 347 347 349 351 351 350 350 348 347 348 349 349 349 349 350 350 350 350 351 351 352 352 353 353 354 354 354
323 324 328 327 326 328 327 325 329 328 323 321 322 320 320 319 317 318 320 320 316 315 323 332 329 329 334 336 339 340 340 344 346 346 348 349 347 348 348 349 351 350 350 348 347 348 349 350 349 350 350 350 350 351 350 351 351 352 353 353 354 354 354
320 322 324 321 321 325 327 326 327 329 325 320 320 320 319 320 321 319 317 317 318 322 328 329 328 331 329 330 338 342 340 343 345 346 347 349 348 348 348 349 350 350 350 349 347 347 349 349 349 350 351 351 350 350 351 351 351 351 352 353 353 354 354
320 323 324 323 322 322 322 321 321 323 323 322 321 320 319 322 326 324 319 315 320 333 340 331 329 330 326 328 335 341 341 341 343 345 346 348 348 348 348 349 350 350 349 349 347 348 349 349 350 350 351 352 351 351 351 351 351 351 351 352 353 354 354
323 324 323 324 325 324 322 320 320 320 320 320 318 318 320 321 322 326 322 314 320 338 339 330 331 331 327 326 331 338 342 342 342 346 345 347 348 349 348 348 350 350 350 349 349 348 349 349 350 350 351 351 352 351 351 351 351 351 352 352 352 353 353
320 320 320 321 322 324 324 322 322 324 323 318 315 317 319 317 317 325 323 314 321 341 339 328 328 330 327 326 328 333 340 341 343 344 344 347 347 348 349 348 349 351 350 350 349 349 349 349 350 350 351 351 352 352 352 352 352 352 351 352 352 353 353
320 319 321 322 322 324 324 323 324 324 323 320 320 325 325 318 315 318 319 314 321 344 352 339 331 328 327 325 326 330 337 341 343 344 344 348 347 348 349 348 349 350 350 351 351 350 349 349 350 351 350 352 352 353 353 352 353 352 352 352 352 353 353
327 320 320 324 327 324 321 323 324 321 324 324 324 327 324 318 315 315 317 316 318 337 356 346 337 335 331 326 325 329 334 340 343 344 345 347 348 348 348 349 350 351 351 352 352 351 350 349 351 350 351 352 352 353 353 353 354 353 353 353 352 353 353
328 323 323 326 326 321 318 321 322 322 324 321 321 323 317 317 320 317 314 315 320 332 341 334 334 338 337 333 328 326 332 338 343 344 347 348 348 350 349 350 351 353 352 354 354 352 350 349 351 351 351 352 352 352 354 354 354 354 354 354 353 353 354
319 320 321 320 318 317 317 318 318 318 321 321 324 322 316 321 326 318 316 320 319 323 328 325 326 335 342 338 329 327 332 338 343 346 347 349 349 350 350 350 351 354 354 354 354 352 349 349 350 351 352 352 353 353 354 355 355 355 355 355 354 354 354
316 316 316 315 316 317 316 317 317 318 321 322 322 318 319 328 323 315 327 333 319 317 327 327 324 335 348 342 328 328 333 338 344 348 349 351 350 349 350 351 352 354 354 354 354 352 349 349 351 352 352 352 353 353 354 355 355 356 356 355 355 355 355
315 315 315 315 316 316 316 316 317 318 321 323 320 317 325 331 319 315 333 341 326 320 326 325 322 332 347 343 330 327 333 340 345 347 348 350 350 349 350 351 353 354 354 355 354 352 350 349 350 351 352 353 353 354 354 355 356 356 356 357 356 356 356
315 314 315 315 315 316 317 319 320 321 324 325 323 323 329 332 324 324 337 340 332 326 328 331 333 336 345 351 343 334 335 343 345 346 349 348 348 350 350 350 352 352 353 354 354 354 352 349 349 351 352 353 353 353 354 356 356 357 357 357 357 357 356
315 314 315 315 316 317 320 325 331 332 333 328 322 324 330 328 325 331 334 332 332 336 340 343 344 345 349 353 350 341 338 343 346 345 347 348 348 349 349 350 351 351 352 353 353 354 353 349 349 350 351 352 353 353 354 355 356 358 358 358 358 357 357
316 316 315 315 317 320 325 331 335 336 338 333 330 339 346 339 336 335 328 324 332 344 345 347 356 364 367 370 367 354 343 344 348 346 347 349 349 348 349 350 350 351 351 352 353 353 352 350 349 350 351 352 352 352 354 355 356 357 358 359 358 358 359
318 316 313 317 323 330 337 338 332 332 340 345 349 351 350 349 351 346 333 329 341 349 347 357 373 377 376 377 377 367 352 346 347 347 347 348 348 348 348 349 350 351 350 350 351 350 349 349 349 349 350 352 352 353 353 354 356 357 357 359 359 359 359
318 315 315 324 334 338 340 337 328 328 337 347 352 350 347 347 351 352 348 347 352 357 360 366 372 369 366 365 363 361 361 357 350 347 347 346 347 346 347 348 349 349 349 350 349 348 348 349 349 350 351 351 351 353 353 354 355 357 358 358 359 359 359
318 317 321 336 345 339 336 333 327 327 331 335 342 347 346 344 346 349 353 355 357 364 368 364 363 361 359 358 357 358 361 365 365 363 361 356 352 350 349 350 350 350 353 353 349 347 348 348 349 350 350 352 353 353 353 354 356 357 359 360 359 360 360
319 319 322 335 343 337 334 332 327 326 328 328 336 348 348 342 342 346 351 353 356 361 364 362 364 363 357 357 357 355 357 361 366 369 370 368 364 362 360 360 359 356 352 351 349 347 348 349 349 349 350 351 353 354 354 355 356 356 359 361 361 361 361
321 318 317 326 338 340 337 333 327 324 327 327 331 343 349 343 339 343 348 350 351 355 359 362 366 363 359 361 359 353 354 357 359 362 365 364 366 367 365 364 362 356 350 349 350 349 349 350 349 349 351 352 352 353 354 355 356 357 357 360 362 363 362
321 318 318 327 340 344 337 330 324 322 325 324 325 337 349 344 336 338 345 348 349 351 354 360 366 365 364 366 362 354 353 354 355 359 362 361 363 364 363 362 360 357 356 356 356 355 355 356 354 351 351 352 352 353 354 355 356 356 356 358 360 362 363
317 316 320 327 336 337 331 325 322 322 324 324 326 340 351 344 335 335 341 346 349 350 352 357 362 365 368 369 361 354 352 353 353 356 358 359 360 359 360 361 360 359 360 360 360 361 362 364 363 357 352 352 353 354 354 356 357 357 357 358 358 360 362
316 317 321 327 331 330 326 323 323 324 324 327 335 349 352 341 334 335 339 344 347 347 348 351 355 360 366 364 355 349 349 351 352 353 355 357 357 357 357 358 359 359 359 359 360 361 362 364 367 363 358 357 358 357 357 356 357 357 358 359 359 360 361
316 317 320 326 330 327 323 325 326 326 329 335 341 346 342 335 333 334 336 341 344 344 345 348 350 352 352 350 347 345 346 349 350 351 352 353 355 356 356 357 357 356 356 356 357 357 359 364 367 366 364 363 363 363 362 361 362 363 362 360 360 360 361
320 321 324 330 331 325 322 326 328 328 334 341 340 336 332 330 330 331 331 333 337 341 344 345 345 345 344 342 344 344 344 346 348 348 349 351 354 355 356 356 355 355 354 355 355 355 357 360 364 365 365 363 361 362 362 363 365 367 366 365 362 360 361
324 325 328 331 331 325 323 326 330 330 333 336 333 331 329 328 327 327 328 327 328 333 340 343 342 342 343 342 343 343 344 345 345 346 348 349 351 353 354 355 354 353 353 353 354 354 355 356 359 361 361 360 358 358 358 360 364 365 366 367 367 364 361
324 325 326 326 327 326 324 325 327 328 328 329 329 328 328 326 325 325 326 325 324 324 331 339 341 341 342 342 342 343 344 345 345 346 346 347 349 351 352 353 353 352 352 352 352 353 353 354 355 356 357 356 355 354 356 359 363 365 365 366 368 369 365
321 323 323 323 325 326 323 323 323 322 322 323 325 326 326 325 325 324 323 323 324 322 324 332 338 340 341 341 342 342 343 343 345 346 346 346 347 349 350 352 352 351 351 351 351 351 351 352 352 353 353 353 352 352 353 356 360 364 365 365 367 369 368
319 322 321 320 322 322 320 321 321 319 318 319 320 323 325 324 324 323 322 322 323 323 322 325 331 336 339 340 341 342 342 343 344 346 347 346 345 346 348 350 351 351 351 351 351 350 350 351 351 351 351 350 350 350 351 353 357 360 363 365 366 368 370
318 323 322 318 317 318 319 320 320 319 317 317 317 319 321 323 324 323 322 322 323 324 324 324 326 331 336 338 340 341 341 342 343 344 347 347 345 344 346 348 350 350 349 350 350 349 349 350 351 350 350 349 349 349 349 350 354 358 362 364 366 366 369
316 320 319 314 313 317 320 320 320 319 318 317 316 316 317 320 322 322 322 322 323 324 326 325 323 326 331 335 339 341 341 342 342 343 345 346 345 344 346 348 349 349 348 348 348 349 348 350 351 350 349 348 347 348 348 349 351 356 361 362 365 367 368
314 317 316 312 312 317 319 319 318 318 317 317 316 315 314 316 320 322 322 321 321 324 326 325 323 323 326 331 336 340 341 341 342 344 343 342 343 344 346 347 349 349 348 348 349 349 349 350 350 349 348 347 346 346 347 348 351 354 357 362 364 367 367
314 315 313 311 312 314 315 315 315 315 315 315 315 315 315 314 317 322 323 321 320 321 323 324 323 322 323 327 333 339 342 342 343 344 342 339 341 344 347 348 349 349 349 349 349 349 349 349 349 349 347 346 346 347 347 349 350 352 355 360 364 365 367
312 312 310 310 311 311 311 312 312 313 313 314 314 315 315 313 316 321 324 323 321 321 321 322 322 322 322 324 331 340 342 340 340 342 341 340 342 345 346 347 347 348 348 349 349 349 348 348 348 347 346 346 346 348 349 349 349 351 355 360 363 364 366
310 310 309 309 310 310 310 310 310 310 311 313 313 315 315 314 316 321 323 322 322 324 324 322 321 321 321 322 329 341 343 339 339 342 343 343 344 345 347 347 347 347 348 348 348 348 348 348 348 346 346 346 347 348 350 349 349 353 357 362 364 364 365
309 309 309 309 309 309 309 309 309 309 310 311 313 315 315 315 317 321 323 323 323 324 325 324 322 321 320 320 326 337 341 338 340 343 342 343 344 345 346 347 347 347 348 347 347 347 346 346 347 346 346 346 347 348 349 349 351 355 359 362 362 363 365

ECMWFFLT2_925_thetae_054.txt.gz
Theta_e
318 320 323 324 327 327 327 327 324 326 330 327 323 326 326 321 321 324 321 323 325 326 331 332 330 333 335 337 342 345 347 348 347 348 349 348 350 349 349 350 349 349 348 346 347 346 346 346 347 349 349 350 351 351 352 352 351 352 352 352 352 352 352
320 317 320 323 325 331 329 324 324 327 329 329 325 323 323 321 323 327 324 320 319 319 327 337 336 336 337 337 340 343 345 347 347 347 348 348 348 349 349 350 349 349 349 347 347 346 347 346 347 348 349 350 350 351 351 352 351 351 352 352 352 352 352
319 317 320 324 326 330 329 327 328 329 327 325 324 323 325 326 325 325 322 321 320 319 324 333 334 337 341 339 339 342 344 345 346 345 346 347 348 349 348 349 349 349 349 347 346 347 347 347 347 347 348 349 349 350 351 351 351 351 351 352 352 352 352
318 319 321 323 325 326 328 329 330 332 330 325 324 325 325 327 327 325 320 318 320 324 329 331 332 337 340 339 340 341 341 343 345 344 345 346 346 348 347 347 348 349 348 347 347 347 347 347 347 347 348 348 349 349 350 351 351 351 351 351 352 352 352
320 323 323 323 323 324 325 325 325 327 327 325 326 324 322 326 329 327 321 318 323 335 338 333 333 334 334 338 340 340 339 340 342 343 344 345 346 346 347 346 347 347 347 348 347 347 347 347 347 348 347 348 348 349 350 350 351 351 351 352 352 352 352
322 323 320 320 321 321 321 322 323 325 325 324 326 325 321 321 325 327 325 320 325 338 337 330 333 333 329 334 338 338 339 338 340 342 342 345 346 345 345 346 346 347 348 348 347 347 347 347 347 347 348 348 348 349 349 350 351 351 351 352 352 352 352
319 318 316 316 316 317 318 321 322 324 325 322 322 325 323 319 320 326 326 320 325 341 341 330 329 330 326 328 333 337 339 337 338 340 340 344 346 345 345 344 343 346 347 347 347 347 347 347 347 348 347 348 348 348 349 349 350 350 351 352 352 352 353
319 318 317 316 316 317 318 321 320 319 321 319 318 325 328 322 319 322 324 320 323 341 350 335 327 330 326 323 328 333 337 336 337 339 340 344 345 346 345 344 344 346 346 348 348 347 347 347 347 348 348 348 349 348 349 350 350 350 350 351 351 352 353
325 321 321 322 323 318 316 318 316 316 318 317 318 323 323 321 320 319 322 321 320 335 351 340 331 333 330 325 324 326 332 335 335 337 340 342 345 347 347 346 347 346 348 350 351 348 347 347 348 348 348 348 349 349 349 349 349 350 350 350 351 352 352
327 324 325 324 322 317 314 315 315 315 317 316 319 323 319 319 322 319 319 319 320 329 339 335 334 337 335 334 331 326 326 330 333 339 342 342 345 348 348 348 347 348 350 352 353 350 348 346 347 348 348 349 349 349 349 349 350 350 350 351 350 351 352
322 322 320 316 315 315 315 316 315 315 316 316 319 322 320 323 326 320 319 322 321 324 331 332 335 334 331 336 338 335 331 326 328 336 342 344 344 346 348 348 349 350 352 352 352 350 347 347 348 348 348 349 349 349 350 350 350 350 350 351 350 351 352
316 315 314 313 314 315 315 315 315 315 317 316 318 321 322 327 325 317 322 330 322 321 329 332 332 331 331 334 339 339 337 331 327 330 338 344 343 344 346 348 351 352 352 353 353 351 348 347 347 348 348 350 350 350 350 350 350 350 350 350 350 351 351
314 314 314 313 314 314 314 315 315 316 316 316 318 320 320 324 324 318 325 337 328 321 327 328 326 330 330 331 337 336 334 332 328 326 334 342 342 342 346 349 351 352 352 354 353 351 349 347 347 349 349 349 350 350 351 351 351 351 351 351 350 351 351
315 313 313 314 313 314 315 315 315 315 317 320 322 323 321 323 324 322 327 336 332 326 330 329 329 335 333 331 339 341 335 330 330 329 332 338 341 342 346 347 349 351 351 353 353 352 351 348 347 348 348 349 350 350 350 351 351 351 352 351 351 351 351
317 314 314 315 314 314 315 315 317 318 323 330 331 331 330 325 323 324 325 328 329 331 336 339 346 356 359 355 358 361 349 335 334 335 334 338 342 342 345 347 348 350 352 352 353 354 352 349 348 349 348 349 349 350 351 352 352 352 352 352 351 351 351
319 317 316 315 314 315 318 320 324 327 332 339 340 340 340 335 334 336 325 319 327 339 342 351 363 369 373 370 366 366 357 344 339 340 339 340 345 345 345 348 348 350 351 352 353 352 350 348 349 349 350 349 350 350 351 351 352 352 352 352 353 352 353
322 318 315 315 318 323 328 329 330 331 332 336 341 346 346 341 345 348 333 327 341 346 349 362 369 365 365 363 358 359 359 355 348 342 342 343 344 346 346 348 349 349 349 350 352 350 349 348 348 349 350 350 350 351 351 352 352 353 354 354 353 353 353
322 318 314 319 327 331 333 331 327 328 331 331 335 343 345 341 343 345 343 345 350 349 354 365 365 360 360 359 356 356 358 359 355 346 344 346 344 345 347 347 348 349 349 350 349 348 348 348 349 350 350 350 351 351 352 352 353 353 354 354 354 354 354
321 319 319 330 337 332 330 328 324 326 330 328 329 338 343 338 337 340 342 346 349 349 355 360 360 361 360 356 356 355 354 356 357 354 350 352 351 348 348 347 349 350 351 352 350 347 349 349 348 349 350 350 351 351 352 352 353 354 355 355 355 355 355
320 320 323 332 334 331 331 329 325 326 328 327 329 339 343 336 333 336 337 340 346 350 351 355 356 358 358 357 357 354 352 354 356 359 361 357 353 351 349 350 353 352 349 349 348 348 348 349 349 349 349 350 351 351 352 352 354 355 355 356 356 356 356
319 319 320 324 329 334 336 333 327 325 325 326 328 336 342 335 330 332 333 337 347 349 349 353 356 357 360 363 359 352 350 351 353 359 365 361 355 356 352 349 348 347 345 345 347 348 348 349 348 349 349 350 351 351 352 352 353 355 355 357 357 357 357
318 318 320 325 333 339 336 330 325 322 323 325 325 331 340 336 327 328 331 336 343 347 348 354 360 366 371 370 361 351 348 349 351 356 360 359 358 359 355 350 346 344 345 346 347 347 348 348 348 349 349 350 351 351 352 352 353 354 355 356 356 357 357
316 316 320 326 334 335 329 324 323 322 323 324 325 335 343 336 326 326 329 332 335 341 347 351 358 369 372 366 357 348 346 348 350 354 358 359 359 357 353 351 349 346 347 348 347 347 348 347 348 349 350 350 351 351 352 352 353 354 355 357 356 357 357
315 316 318 322 330 331 324 322 323 323 323 325 332 346 345 332 326 327 328 330 330 334 344 349 352 360 363 358 352 347 346 347 348 351 355 357 359 358 355 353 353 352 351 351 350 349 349 347 349 349 350 350 351 352 352 352 353 354 355 356 356 357 357
315 317 318 321 328 328 322 322 323 323 326 331 338 343 336 327 326 327 326 329 328 330 341 349 349 351 352 349 348 345 345 347 347 349 352 354 355 357 357 357 357 357 356 357 357 357 355 352 349 348 350 351 352 352 352 352 353 354 354 356 357 358 358
315 317 318 323 329 325 320 322 323 322 330 336 333 331 327 325 326 325 325 327 328 329 337 346 347 346 345 345 344 344 344 347 348 348 350 352 353 354 354 356 356 356 358 358 358 360 360 357 352 350 351 354 355 354 354 355 357 356 356 356 356 357 359
320 321 323 327 329 323 319 322 322 319 323 325 322 321 323 322 323 324 324 325 326 327 332 338 342 344 343 342 343 342 343 345 346 347 348 349 351 352 352 353 354 354 355 355 354 357 359 358 356 354 355 357 358 357 357 359 362 361 360 358 357 357 357
322 325 326 326 325 321 318 320 321 317 316 317 317 318 319 319 319 321 323 324 325 326 327 331 336 340 341 341 342 342 343 343 344 346 347 347 349 351 350 351 351 351 351 351 351 352 354 356 358 357 358 357 356 356 357 360 363 364 364 364 362 361 359
318 321 323 321 320 320 319 318 318 316 315 316 316 316 316 316 317 318 321 323 323 324 325 326 328 331 336 339 340 341 342 342 342 344 345 346 347 348 349 349 349 349 349 349 349 348 349 351 354 355 356 356 353 353 355 359 362 364 365 365 366 365 364
315 319 319 316 314 316 318 318 316 315 314 315 316 315 315 316 316 316 319 321 322 323 324 324 323 323 327 333 337 339 341 341 342 343 344 344 345 346 347 348 348 348 348 348 347 347 347 347 348 350 351 352 350 350 352 356 361 363 364 365 366 366 367
316 320 318 313 312 314 316 317 317 315 314 314 315 315 315 314 315 316 316 319 322 321 321 323 322 320 320 324 330 336 339 340 341 342 343 344 344 344 346 347 347 347 347 347 347 346 345 345 346 346 347 348 348 349 350 353 357 361 363 364 365 365 366
315 317 314 311 311 315 318 318 318 317 315 314 314 314 314 314 314 314 314 317 321 319 318 321 322 319 319 320 324 331 338 340 340 341 343 343 344 344 345 347 348 347 346 346 346 345 344 345 345 345 346 347 347 348 350 351 354 358 361 363 364 365 366
313 314 312 310 312 315 317 317 317 316 315 314 314 313 313 313 313 313 312 315 320 318 315 319 320 319 319 320 321 326 334 339 340 341 342 342 342 344 345 346 346 347 345 345 345 344 344 345 345 346 347 347 348 348 350 351 354 356 360 361 364 364 365
312 312 311 310 311 313 313 313 313 314 313 314 313 313 313 312 313 314 313 315 319 319 316 318 320 318 318 319 319 322 329 336 339 341 341 341 342 343 344 345 347 346 346 345 345 344 344 345 346 346 347 348 348 349 349 351 354 356 359 362 363 365 365
312 311 310 310 310 311 311 310 311 312 313 314 313 312 313 312 312 313 314 314 318 319 318 319 321 320 318 318 318 319 323 330 337 340 340 341 342 343 344 345 345 345 345 345 344 344 344 345 345 345 346 348 348 348 349 351 354 357 360 362 364 364 365
311 310 310 310 310 310 310 310 310 311 312 313 313 312 312 312 312 314 314 315 317 320 320 319 319 320 320 318 318 319 321 325 335 340 340 340 342 343 343 343 343 343 344 343 342 342 344 344 344 345 346 346 347 349 350 352 355 359 360 361 363 363 365
311 310 310 310 310 310 310 310 310 310 311 312 313 313 313 313 314 314 314 315 317 319 320 320 319 319 319 317 318 319 319 323 333 339 337 338 342 342 342 342 341 340 340 340 339 340 341 342 343 343 344 345 346 348 350 353 355 358 358 359 361 362 364

ECMWFFLT2_925_thetae_057.txt.gz
Theta_e
317 319 319 321 322 321 323 323 320 322 325 323 317 317 320 319 317 318 317 316 320 322 325 328 328 330 331 332 333 336 341 345 348 350 351 351 351 350 350 350 350 349 350 350 351 351 352 353 353 354 355 355 355 355 355 354 354 354 353 353 353 353 352
318 317 318 320 321 322 323 320 322 325 327 325 321 319 321 320 319 319 316 314 315 315 320 327 330 329 330 332 332 333 338 343 347 349 350 351 351 350 350 350 350 349 350 350 350 350 351 352 353 354 355 355 355 355 355 355 355 355 354 353 353 353 353
319 317 319 321 321 323 323 323 325 325 322 321 322 321 322 321 320 320 317 315 314 313 317 325 329 329 331 332 334 333 336 342 345 346 349 351 350 351 351 350 350 350 349 350 351 349 350 351 352 354 354 355 355 355 355 355 355 355 354 354 354 354 353
318 318 319 319 320 323 324 325 326 325 322 321 321 322 321 320 321 320 319 317 315 317 321 325 328 332 332 333 336 336 336 340 343 344 347 350 351 351 351 350 350 349 348 350 351 349 349 350 352 353 354 354 354 354 355 355 355 355 355 354 354 354 354
316 318 320 319 320 322 322 322 323 323 323 323 323 322 320 320 321 321 320 318 315 320 328 327 327 331 332 334 339 339 337 338 342 344 345 348 350 351 351 350 350 349 349 350 350 350 349 350 350 352 352 352 353 354 354 355 355 355 355 354 355 355 354
317 318 319 320 319 319 319 320 321 321 321 321 322 322 320 318 319 320 321 318 316 322 331 329 326 328 330 333 337 339 337 337 340 344 345 347 350 350 350 350 349 348 349 350 350 350 349 349 350 351 351 352 353 353 354 354 354 355 355 355 355 355 355
318 318 317 317 317 317 317 318 320 321 321 320 320 322 321 319 319 319 319 318 320 327 336 332 328 330 329 331 336 336 336 337 339 342 344 346 349 349 349 348 348 349 349 350 351 350 350 350 349 350 350 351 352 352 353 353 354 354 354 355 355 356 356
316 316 317 317 316 317 318 318 319 319 319 319 319 321 322 320 320 319 320 320 321 329 341 339 331 330 327 326 330 331 335 337 339 342 343 346 349 350 348 348 349 349 349 351 352 352 352 351 350 350 350 350 351 352 353 353 354 354 354 354 355 356 356
318 319 320 319 318 318 318 318 318 317 318 319 319 321 322 320 319 319 321 321 321 329 343 342 334 330 327 325 325 325 329 333 335 339 342 346 350 351 349 349 350 349 350 353 354 354 354 352 351 350 350 350 351 351 352 353 353 354 354 354 355 355 355
321 323 323 320 319 318 317 317 317 316 317 318 319 322 322 320 321 320 320 320 322 331 339 337 332 330 329 330 329 326 325 328 331 336 340 343 349 352 351 350 350 351 353 355 356 357 355 351 351 351 350 350 350 351 352 352 353 353 353 354 354 355 355
320 321 319 316 315 317 317 317 317 317 317 317 319 322 321 322 321 319 321 323 321 325 332 333 330 329 330 333 333 330 329 330 329 334 339 340 345 349 350 350 351 354 356 357 357 358 354 351 351 351 351 350 350 351 352 351 353 353 353 354 354 355 355
316 316 316 314 314 315 316 316 316 317 317 317 319 321 322 324 323 319 324 329 322 322 329 332 331 332 334 336 334 333 335 334 331 333 337 338 340 344 348 350 352 355 357 358 357 356 354 352 351 351 351 350 350 351 352 351 352 353 353 354 355 355 355
314 314 314 313 314 314 315 316 316 316 317 317 319 321 321 324 326 324 328 334 330 327 326 328 331 334 335 334 334 333 331 331 331 332 333 333 335 340 345 349 353 355 355 357 357 356 354 352 352 351 351 351 351 351 352 351 352 353 353 354 354 355 355
313 313 313 313 313 314 315 315 315 316 317 317 318 321 322 324 327 326 328 333 331 327 330 336 338 341 342 338 334 335 338 340 342 339 334 331 330 335 342 346 351 353 353 355 357 357 356 353 352 352 352 352 352 352 351 351 352 353 353 354 355 354 355
314 314 314 314 314 315 315 316 316 316 317 318 322 328 331 330 329 329 329 330 330 331 341 347 346 348 352 350 345 349 354 355 354 351 345 339 332 332 337 343 349 352 352 354 357 357 356 355 353 352 352 352 352 351 352 352 352 352 353 354 355 354 355
316 315 315 315 314 315 316 316 317 317 318 324 331 338 341 339 337 334 328 327 335 342 348 351 351 353 357 357 356 357 357 356 357 357 355 350 341 334 334 339 347 350 350 352 355 354 353 354 353 352 353 353 352 351 352 352 352 352 353 354 354 354 355
316 315 315 316 317 318 320 320 319 319 323 332 336 340 342 341 341 339 333 334 341 345 348 353 356 357 358 358 357 356 356 356 356 356 357 356 349 341 335 336 342 347 348 350 352 351 351 352 352 352 353 353 352 352 352 352 352 352 353 353 354 354 355
316 315 315 318 320 322 324 325 323 322 328 336 338 339 338 336 336 336 336 337 338 340 344 352 356 356 357 357 355 355 356 355 355 355 356 357 354 347 338 334 335 342 348 350 352 353 353 352 351 351 352 352 353 352 353 353 352 353 353 353 354 355 355
315 315 317 321 324 325 326 328 327 327 331 334 337 337 333 329 329 330 332 333 332 334 338 345 352 354 353 354 355 354 353 353 353 354 355 356 357 351 341 336 338 345 351 352 352 353 353 351 352 352 352 352 353 353 353 354 353 354 354 354 355 355 356
315 316 319 323 324 324 327 328 327 328 330 332 338 340 333 326 326 327 328 329 329 331 333 337 346 352 351 351 354 353 351 352 352 353 354 355 357 353 343 340 345 349 350 350 352 353 352 351 351 352 352 352 352 353 353 354 354 355 355 356 356 356 356
316 316 318 320 322 325 330 329 326 326 328 330 336 342 336 327 323 325 326 327 327 329 330 333 340 349 353 354 355 352 350 350 351 352 354 354 355 353 345 342 348 351 351 350 352 353 351 351 351 351 351 352 352 353 353 353 355 355 355 357 357 356 357
316 317 318 319 322 328 332 329 324 323 324 325 328 336 338 329 323 323 325 325 326 327 329 330 338 350 357 359 358 352 348 349 351 352 353 354 354 350 344 345 349 351 352 352 352 352 352 352 352 352 352 352 352 353 353 354 355 355 356 358 358 358 358
315 316 318 320 322 326 328 325 322 322 324 324 326 337 342 330 322 321 322 323 324 325 326 329 339 355 361 359 356 350 347 349 352 352 353 354 354 351 347 347 348 351 352 353 352 352 352 352 352 353 352 352 353 355 355 355 355 356 357 358 359 359 358
315 315 317 318 320 323 324 322 322 321 321 323 331 344 343 328 320 320 320 321 323 324 324 327 337 350 356 355 352 347 347 351 351 352 353 354 354 354 352 349 350 353 355 354 352 352 353 352 353 353 353 353 355 356 356 355 355 356 358 359 359 359 358
314 315 317 317 318 322 322 320 321 319 321 330 339 342 332 322 319 319 317 319 322 323 323 325 330 334 338 343 348 347 348 350 351 350 352 353 355 357 358 357 355 353 353 353 352 352 353 353 352 352 353 355 357 357 356 355 356 357 358 359 359 359 360
314 315 316 317 319 321 318 319 320 320 326 336 335 326 320 318 318 318 316 317 320 321 322 323 325 326 327 332 339 345 347 349 349 350 351 352 354 356 358 360 359 356 354 354 352 352 353 353 352 353 354 357 359 359 358 357 357 358 358 358 359 360 361
316 316 316 318 322 320 317 319 321 319 322 325 320 316 317 317 316 316 315 316 317 319 320 321 322 323 324 325 330 340 346 347 348 349 350 350 352 353 355 357 358 359 360 358 355 354 352 352 353 353 355 359 360 359 359 358 358 358 358 357 358 360 360
318 320 320 319 320 318 317 319 319 317 316 316 314 315 316 316 315 315 315 315 316 317 319 321 320 321 322 322 326 334 344 346 346 348 350 349 350 352 353 354 355 358 360 361 360 358 355 355 355 355 357 361 362 361 361 358 356 356 356 356 357 359 360
316 319 319 316 315 315 316 317 316 315 314 313 313 314 315 315 315 315 315 315 316 315 318 321 321 320 321 321 323 329 339 345 345 347 349 349 350 351 352 353 353 355 357 358 359 359 359 359 358 357 358 361 363 364 360 356 354 355 355 355 356 358 361
314 316 316 313 312 313 315 316 315 314 314 314 313 313 314 314 315 314 315 315 315 315 317 321 322 321 320 320 322 325 333 340 344 345 347 348 350 351 351 351 352 353 354 355 355 356 356 357 358 360 360 361 362 362 358 355 355 355 355 356 357 358 361
314 316 315 313 311 312 315 316 316 315 315 315 314 313 314 314 314 314 315 314 314 314 316 320 322 322 321 320 321 323 327 333 340 344 346 348 349 350 350 350 351 351 352 352 353 353 353 354 355 357 358 358 359 359 358 358 358 358 357 358 358 359 360
314 315 314 312 311 313 316 317 316 316 315 315 313 313 313 313 313 314 314 314 314 313 315 318 322 322 321 320 320 321 324 327 333 342 347 347 348 349 350 350 350 350 351 351 351 351 351 352 352 352 353 354 355 357 360 361 362 364 363 362 362 362 361
313 313 313 312 312 315 316 316 314 314 314 314 313 313 313 313 313 314 314 314 314 313 314 317 319 320 320 319 319 321 322 324 330 340 346 347 348 349 349 350 349 349 349 350 349 349 350 350 351 351 350 350 351 354 358 360 364 367 367 365 365 365 365
313 313 312 312 313 314 314 312 312 312 312 313 313 313 313 313 313 314 314 314 314 314 314 316 318 318 319 318 318 319 320 321 326 336 343 345 347 348 348 349 349 348 348 348 348 348 348 348 349 349 348 349 350 352 354 357 361 364 365 365 366 366 367
313 312 312 312 312 312 311 311 311 311 311 312 313 313 313 313 313 314 314 314 315 315 314 316 318 318 317 318 317 317 318 319 323 332 340 343 345 346 346 346 347 347 347 346 346 346 346 346 346 347 347 347 349 351 353 355 358 360 362 364 367 368 368
312 311 311 311 311 312 312 311 311 312 312 313 313 314 314 313 313 313 314 314 315 315 315 316 319 318 317 318 317 317 318 318 321 330 338 340 341 343 344 343 344 344 344 344 344 344 344 343 344 344 345 346 349 352 354 357 359 360 361 363 366 368 368
311 311 311 311 311 311 312 311 312 313 313 313 314 314 314 314 314 314 314 314 315 315 315 316 318 317 318 319 318 317 317 317 320 329 336 337 336 339 340 340 340 341 340 341 341 341 341 341 342 343 344 345 347 351 353 357 359 360 361 363 365 366 366

ECMWFFLT2_925_thetae_060.txt.gz
Theta_e
322 324 324 324 323 320 321 319 316 318 321 318 314 313 314 314 315 316 314 315 319 320 325 329 331 331 331 333 334 334 335 337 340 342 345 347 350 352 352 353 354 355 357 359 358 358 358 358 358 358 357 358 359 359 360 362 361 362 361 361 360 359 359
322 322 323 324 324 324 321 317 318 321 322 321 316 314 314 315 315 316 313 313 315 314 318 326 328 328 329 331 333 334 334 336 337 340 343 344 348 351 352 354 354 354 355 358 358 357 357 358 358 358 359 359 359 359 360 360 361 362 361 361 360 360 359
321 322 323 322 323 325 323 321 324 322 317 317 317 316 317 316 316 315 313 312 312 311 315 323 326 326 327 329 330 332 333 335 336 338 341 343 346 349 353 354 353 353 354 358 358 358 357 358 358 359 359 359 358 359 360 360 361 361 361 360 360 360 360
322 321 321 318 319 323 324 324 327 324 320 317 317 318 318 316 316 316 314 312 312 315 320 324 327 328 326 327 329 330 332 334 337 338 340 344 346 348 352 353 353 353 353 356 357 357 357 357 358 359 359 359 359 359 360 360 360 360 360 360 359 359 360
319 319 320 320 319 320 322 320 321 322 322 321 319 319 318 316 316 317 317 314 313 320 327 327 327 330 329 329 330 330 332 332 334 337 339 342 347 349 351 352 353 353 353 355 357 356 356 357 357 358 358 358 358 358 359 359 360 360 359 360 359 360 360
316 317 320 321 321 322 322 320 320 320 320 319 318 318 317 316 316 316 317 315 315 323 330 328 327 329 329 330 332 330 333 333 334 337 338 342 346 351 351 352 352 353 353 354 356 356 356 355 357 358 356 358 358 358 359 358 358 360 359 359 359 360 360
316 319 321 322 321 321 322 322 323 324 322 319 316 316 317 317 316 316 316 315 318 327 330 328 327 328 328 328 329 331 332 334 334 337 337 341 346 351 352 350 351 352 353 356 357 356 356 355 357 357 357 357 358 357 358 358 358 358 358 358 358 360 360
318 319 319 320 320 320 321 322 324 325 324 321 321 320 320 319 316 316 317 315 319 328 332 330 329 329 328 329 329 329 330 332 333 336 336 340 346 352 353 351 351 352 353 356 357 356 357 356 356 356 356 357 357 358 357 357 357 357 358 358 359 360 361
318 317 317 319 320 320 319 322 324 325 325 325 325 323 323 322 318 317 318 315 318 328 334 332 330 329 328 329 330 329 331 330 332 334 338 339 348 354 354 352 353 353 354 357 358 358 359 355 355 356 356 357 358 357 357 357 357 357 358 357 358 360 361
318 318 318 318 319 321 320 322 324 323 324 325 324 321 321 322 321 320 319 316 320 330 336 332 333 331 329 330 331 330 329 330 330 334 338 341 350 356 356 355 353 354 357 359 360 360 359 355 356 356 356 357 356 356 356 356 356 357 357 358 358 359 361
319 320 322 321 319 319 320 320 322 322 323 324 324 321 319 321 322 320 321 321 321 327 334 335 333 331 330 330 329 330 331 332 332 335 339 342 346 351 355 355 354 357 359 360 360 361 359 356 355 355 356 357 356 356 357 356 357 357 357 358 359 359 361
318 319 320 318 317 318 318 318 320 320 322 323 322 320 321 325 323 319 324 328 323 325 333 335 333 333 334 331 333 333 333 333 333 335 339 339 339 343 350 354 356 357 358 361 361 360 359 357 355 355 356 356 355 356 356 356 356 357 357 359 359 359 360
314 314 315 315 316 317 317 317 318 319 321 322 321 321 323 327 325 322 327 332 328 329 333 332 332 337 338 337 339 336 334 336 339 339 340 336 333 336 343 351 356 356 358 362 362 360 360 358 356 355 356 355 355 356 356 356 356 357 357 358 358 359 361
312 312 313 314 314 315 316 316 317 318 320 320 320 322 324 325 326 326 329 332 331 331 334 335 337 339 338 336 338 337 337 343 346 345 343 339 336 334 336 345 354 356 358 360 364 364 361 358 356 356 355 355 355 355 356 357 356 356 357 358 359 359 360
312 312 313 314 314 315 316 316 317 317 318 320 320 321 323 323 324 327 329 329 329 330 337 343 344 341 339 337 337 341 345 348 350 349 346 344 345 345 341 341 347 353 356 359 363 364 363 360 358 356 355 355 355 355 355 356 356 356 357 358 359 360 360
312 312 313 314 314 315 315 315 317 317 317 320 320 321 323 323 325 328 327 325 328 335 342 344 345 342 342 340 339 346 352 353 354 354 352 351 354 355 353 352 348 348 351 355 360 361 360 359 357 356 356 356 355 355 356 355 356 356 356 358 359 360 360
311 312 313 314 316 317 317 317 317 318 318 320 320 322 330 334 333 330 327 328 335 342 341 342 344 345 346 347 347 353 356 356 356 355 354 355 355 356 358 359 356 351 347 349 355 357 359 358 356 355 356 357 355 356 356 356 355 355 357 358 359 361 360
311 312 314 316 318 317 319 320 319 320 320 320 320 324 335 341 337 333 334 337 340 339 338 340 342 343 346 348 349 353 355 356 356 356 355 356 356 358 357 358 359 358 353 348 350 356 357 356 355 356 355 357 357 356 355 356 356 356 357 358 360 361 360
310 311 314 318 319 319 321 325 325 323 321 319 323 331 337 337 336 336 338 339 337 335 335 336 338 340 342 343 346 349 351 353 354 354 355 355 356 357 358 359 361 362 359 351 347 352 356 354 354 355 356 356 356 355 356 356 356 356 357 358 360 361 361
310 311 313 318 320 320 323 329 328 327 327 326 331 336 335 333 333 335 336 336 334 332 332 333 334 338 340 341 345 348 349 351 352 351 352 354 355 355 357 358 359 362 361 353 345 348 354 353 353 355 355 355 355 356 356 355 355 357 357 358 360 361 362
311 311 313 316 318 318 323 329 330 329 331 332 334 337 335 331 329 331 332 333 331 329 331 332 333 336 340 344 347 347 346 348 349 349 350 351 353 355 356 358 360 360 360 352 344 347 353 352 351 354 354 355 355 355 354 356 357 357 357 359 361 361 362
311 312 313 316 319 320 324 330 329 326 327 328 330 336 335 330 326 327 328 328 328 327 329 329 331 338 345 349 349 344 339 338 340 345 348 350 352 354 355 358 361 357 353 349 344 347 352 352 351 353 353 354 356 355 355 356 356 357 358 360 361 361 362
311 312 314 316 319 322 327 328 325 323 325 326 328 336 337 329 324 324 324 324 324 324 324 326 331 341 349 351 346 336 330 330 332 338 346 350 351 354 357 359 359 353 349 349 346 348 352 353 351 352 353 355 355 355 356 356 357 357 358 360 361 362 362
312 312 314 315 317 322 325 324 322 322 323 324 331 340 337 326 322 322 322 322 321 320 321 325 329 336 341 340 334 326 325 328 330 336 347 352 352 354 358 360 360 353 350 351 349 350 353 353 351 352 355 354 355 356 357 357 356 358 359 360 361 363 363
311 312 314 315 316 320 323 322 321 321 323 329 336 337 329 323 321 320 319 319 318 318 319 323 325 327 326 325 324 322 323 326 329 336 349 354 354 356 358 359 360 355 352 353 352 351 352 352 352 354 355 355 356 358 358 358 357 358 359 361 363 363 362
311 311 313 315 317 319 320 320 321 321 326 334 332 324 320 320 320 319 318 317 317 317 318 320 321 322 321 321 322 321 322 325 328 338 350 354 354 356 357 359 359 357 354 355 353 350 353 354 354 354 354 355 358 359 358 359 358 358 360 362 364 364 364
311 312 313 315 318 318 318 320 321 321 324 326 321 317 319 320 318 318 317 316 315 316 317 317 319 320 321 321 321 321 321 323 327 338 352 354 352 354 356 356 359 359 355 354 352 353 355 354 354 355 355 357 360 360 359 360 358 358 361 363 365 366 365
313 314 315 317 318 317 316 318 320 319 318 317 316 317 319 318 317 317 317 317 316 315 316 316 317 320 321 321 321 321 321 321 325 336 350 354 352 354 355 356 358 360 360 355 351 354 356 355 356 356 357 361 363 361 361 360 359 359 363 365 367 367 365
315 315 316 317 316 315 315 317 318 316 315 314 315 316 317 317 317 316 316 317 316 315 316 316 317 319 320 320 321 321 321 322 324 333 347 353 352 354 355 356 357 359 362 360 356 356 356 355 356 357 359 364 365 364 363 362 360 362 366 368 369 367 366
315 315 315 315 315 314 315 316 316 316 315 315 315 316 317 316 315 315 315 316 316 316 317 316 317 318 320 321 322 321 321 323 323 329 344 352 351 352 354 355 356 357 358 362 364 364 362 359 358 359 363 366 366 365 364 364 363 366 370 369 369 367 368
314 315 316 315 314 313 314 316 316 316 316 315 315 316 316 315 315 315 315 316 316 316 317 317 316 317 319 321 322 321 321 323 323 327 341 351 350 350 352 352 355 357 357 359 363 365 366 365 363 363 364 366 366 368 368 366 365 368 371 370 368 368 368
314 315 315 313 312 313 315 317 317 316 315 314 314 315 316 315 315 315 315 316 317 317 318 317 317 317 318 320 321 320 320 323 322 324 337 349 350 349 350 350 351 354 355 358 360 361 362 363 365 366 368 366 368 369 367 364 365 369 369 368 368 368 367
314 315 314 313 313 315 317 317 315 314 313 313 314 314 315 315 316 315 315 316 317 317 317 317 317 318 319 320 320 320 321 323 322 323 334 348 349 347 348 349 348 350 352 354 356 357 357 359 361 363 365 366 367 369 368 367 369 370 369 368 368 368 367
314 314 313 313 313 315 315 314 313 313 314 314 314 314 315 316 316 315 315 316 317 317 318 317 317 318 319 319 319 320 321 322 321 324 335 345 346 344 346 346 347 348 350 351 352 354 355 356 358 359 361 362 365 367 368 369 370 370 370 369 369 369 369
312 312 311 312 313 313 313 312 313 313 313 314 315 315 316 316 315 315 316 316 316 318 318 318 318 317 318 318 318 319 321 322 322 326 336 341 341 341 343 343 345 347 347 347 350 351 353 354 355 356 358 359 361 363 365 367 368 369 370 369 368 369 370
311 311 310 311 312 313 312 312 313 313 314 315 316 316 316 316 316 316 316 315 316 317 317 318 318 318 318 318 318 319 321 323 323 327 334 336 336 338 340 341 343 344 345 346 347 349 350 353 353 354 356 357 359 361 362 365 367 369 370 369 368 368 369
310 310 310 310 311 312 311 311 312 313 314 315 316 317 317 317 317 316 315 315 316 317 317 317 318 317 317 318 319 320 322 323 324 326 331 333 333 336 338 339 341 342 343 344 345 347 348 351 352 352 353 354 356 358 360 362 365 367 369 370 369 369 370